| time (UTC) | temp F | wind direction | speed MPH | gust MPH | rain 1hr in | rain 24hr in | rain mn in | humidity % | barometer mb |
| 20260505194403 | 54 | 1 | 0.0 | 1.0 | 0.02 | 0.59 | 0.59 | 90 | 1011.2 |
| 20260505194304 | 54 | 1 | 0.0 | 1.0 | 0.02 | 0.59 | 0.59 | 90 | 1011.3 |
| 20260505194203 | 54 | 1 | 0.0 | 1.0 | 0.02 | 0.59 | 0.59 | 90 | 1011.3 |
| 20260505194104 | 54 | 1 | 0.0 | 1.0 | 0.02 | 0.59 | 0.59 | 90 | 1011.3 |
| 20260505194004 | 54 | 1 | 0.0 | 1.0 | 0.02 | 0.59 | 0.59 | 90 | 1011.1 |
| 20260505193904 | 54 | 1 | 0.0 | 1.0 | 0.02 | 0.59 | 0.59 | 90 | 1011.2 |
| 20260505193805 | 54 | 1 | 0.0 | 1.0 | 0.02 | 0.59 | 0.59 | 90 | 1011.3 |
| 20260505193703 | 54 | 1 | 0.0 | 1.0 | 0.02 | 0.59 | 0.59 | 90 | 1011.2 |
| 20260505193604 | 54 | 1 | 0.0 | 1.0 | 0.01 | 0.58 | 0.58 | 90 | 1011.4 |
| 20260505193504 | 54 | 1 | 0.0 | 1.0 | 0.01 | 0.58 | 0.58 | 90 | 1011.3 |
| 20260505193403 | 54 | 1 | 0.0 | 1.0 | 0.01 | 0.58 | 0.58 | 90 | 1011.3 |
| 20260505193304 | 54 | 1 | 0.0 | 1.0 | 0.01 | 0.58 | 0.58 | 90 | 1011.3 |
| 20260505193204 | 54 | 1 | 0.0 | 1.0 | 0.01 | 0.58 | 0.58 | 90 | 1011.2 |
| 20260505193109 | 54 | 1 | 0.0 | 1.0 | 0.01 | 0.58 | 0.58 | 90 | 1011.2 |
| 20260505193004 | 54 | 1 | 0.0 | 1.0 | 0.01 | 0.58 | 0.58 | 90 | 1011.2 |
| 20260505192904 | 54 | 1 | 0.0 | 1.0 | 0.01 | 0.58 | 0.58 | 90 | 1011.1 |
| 20260505192815 | 54 | 1 | 0.0 | 1.0 | 0.01 | 0.58 | 0.58 | 90 | 1011.2 |
| 20260505192704 | 54 | 1 | 0.0 | 1.0 | 0.01 | 0.58 | 0.58 | 90 | 1011.2 |
| 20260505192603 | 54 | 1 | 0.0 | 1.0 | 0.01 | 0.58 | 0.58 | 90 | 1011.2 |
| 20260505192504 | 54 | 1 | 0.0 | 1.0 | 0.01 | 0.58 | 0.58 | 90 | 1011.2 |
| 20260505192404 | 54 | 8 | 0.0 | 1.0 | 0.01 | 0.58 | 0.58 | 90 | 1011.2 |
| 20260505192204 | 54 | 10 | 0.0 | 1.0 | 0.01 | 0.58 | 0.58 | 90 | 1011.3 |
| 20260505192104 | 54 | 11 | 0.0 | 1.0 | 0.01 | 0.58 | 0.58 | 90 | 1011.1 |
| 20260505192004 | 54 | 11 | 0.0 | 1.0 | 0.01 | 0.58 | 0.58 | 90 | 1011.1 |
| 20260505191904 | 54 | 15 | 0.0 | 1.0 | 0.01 | 0.58 | 0.58 | 90 | 1011.2 |
| 20260505191805 | 54 | 17 | 0.0 | 1.0 | 0.01 | 0.58 | 0.58 | 90 | 1011.2 |
| 20260505191705 | 54 | 19 | 0.0 | 1.0 | 0.01 | 0.58 | 0.58 | 90 | 1011.2 |
| 20260505191513 | 54 | 27 | 0.0 | 1.0 | 0.01 | 0.58 | 0.58 | 90 | 1011.2 |
| 20260505191404 | 54 | 30 | 0.0 | 1.0 | 0.01 | 0.58 | 0.58 | 89 | 1011.2 |
| 20260505191304 | 54 | 30 | 0.0 | 1.0 | 0.01 | 0.58 | 0.58 | 89 | 1011.1 |
| 20260505191005 | 54 | 30 | 0.0 | 1.0 | 0.01 | 0.58 | 0.58 | 90 | 1011.1 |
| 20260505190904 | 54 | 30 | 0.0 | 1.0 | 0.01 | 0.58 | 0.58 | 90 | 1011.0 |
| 20260505190804 | 54 | 30 | 0.0 | 1.0 | 0.00 | 0.57 | 0.57 | 90 | 1011.1 |
| 20260505190705 | 54 | 30 | 0.0 | 1.0 | 0.00 | 0.57 | 0.57 | 89 | 1011.1 |
| 20260505190604 | 54 | 30 | 0.0 | 1.0 | 0.00 | 0.57 | 0.57 | 89 | 1011.1 |
| 20260505190403 | 54 | 30 | 0.0 | 1.0 | 0.00 | 0.57 | 0.57 | 89 | 1011.1 |
| 20260505190305 | 54 | 30 | 0.0 | 1.0 | 0.00 | 0.57 | 0.57 | 89 | 1011.1 |
| 20260505190209 | 54 | 31 | 0.0 | 1.0 | 0.00 | 0.57 | 0.57 | 89 | 1011.0 |
| 20260505190105 | 54 | 25 | 0.0 | 1.0 | 0.00 | 0.57 | 0.57 | 89 | 1011.0 |
| 20260505190004 | 54 | 25 | 0.0 | 1.0 | 0.00 | 0.57 | 0.57 | 89 | 1011.1 |
| 20260505185704 | 54 | 19 | 0.0 | 1.0 | 0.00 | 0.57 | 0.57 | 90 | 1011.0 |
| 20260505185603 | 54 | 17 | 0.0 | 1.0 | 0.00 | 0.57 | 0.57 | 90 | 1011.1 |
| 20260505185504 | 54 | 16 | 0.0 | 1.0 | 0.00 | 0.57 | 0.57 | 89 | 1011.0 |
| 20260505185404 | 54 | 13 | 0.0 | 1.0 | 0.00 | 0.57 | 0.57 | 89 | 1011.0 |
| 20260505185305 | 54 | 11 | 0.0 | 1.0 | 0.00 | 0.57 | 0.57 | 89 | 1010.9 |
| 20260505185104 | 54 | 1 | 0.0 | 1.0 | 0.00 | 0.57 | 0.57 | 89 | 1010.9 |
| 20260505185004 | 54 | 1 | 0.0 | 1.0 | 0.01 | 0.57 | 0.57 | 89 | 1010.9 |
| 20260505184904 | 54 | 1 | 0.0 | 1.0 | 0.01 | 0.57 | 0.57 | 89 | 1010.9 |
| 20260505184804 | 54 | 1 | 0.0 | 1.0 | 0.01 | 0.57 | 0.57 | 89 | 1010.9 |
| 20260505184704 | 54 | 1 | 0.0 | 1.0 | 0.01 | 0.57 | 0.57 | 89 | 1010.9 |
| 20260505184605 | 54 | 1 | 0.0 | 1.0 | 0.01 | 0.57 | 0.57 | 89 | 1010.9 |
| 20260505184504 | 54 | 1 | 0.0 | 1.0 | 0.01 | 0.57 | 0.57 | 89 | 1011.0 |
| 20260505184304 | 54 | 7 | 0.0 | 2.0 | 0.01 | 0.57 | 0.57 | 89 | 1010.9 |
| 20260505184204 | 54 | 9 | 0.0 | 2.0 | 0.01 | 0.57 | 0.57 | 89 | 1011.0 |
| 20260505184003 | 54 | 11 | 0.0 | 2.0 | 0.01 | 0.57 | 0.57 | 89 | 1010.9 |
| 20260505183904 | 54 | 11 | 0.0 | 2.0 | 0.01 | 0.57 | 0.57 | 89 | 1011.0 |
| 20260505183803 | 54 | 11 | 0.0 | 2.0 | 0.01 | 0.57 | 0.57 | 89 | 1010.9 |
| 20260505183708 | 54 | 11 | 0.0 | 2.0 | 0.01 | 0.57 | 0.57 | 89 | 1011.0 |
| 20260505183604 | 54 | 10 | 0.0 | 2.0 | 0.01 | 0.57 | 0.57 | 89 | 1010.9 |
| 20260505183504 | 54 | 5 | 0.0 | 2.0 | 0.01 | 0.57 | 0.57 | 89 | 1010.9 |
| 20260505183415 | 54 | 3 | 0.0 | 2.0 | 0.01 | 0.57 | 0.57 | 89 | 1010.9 |
| 20260505183304 | 54 | 1 | 0.0 | 2.0 | 0.01 | 0.57 | 0.57 | 89 | 1011.0 |
| 20260505183104 | 54 | 355 | 0.0 | 2.0 | 0.01 | 0.57 | 0.57 | 90 | 1011.0 |
| 20260505183004 | 54 | 354 | 0.0 | 2.0 | 0.01 | 0.57 | 0.57 | 89 | 1010.9 |
| 20260505182904 | 54 | 351 | 0.0 | 2.0 | 0.01 | 0.57 | 0.57 | 89 | 1010.9 |
| 20260505182804 | 54 | 351 | 0.0 | 2.0 | 0.01 | 0.57 | 0.57 | 89 | 1010.9 |
| 20260505182704 | 54 | 350 | 0.0 | 2.0 | 0.01 | 0.57 | 0.57 | 89 | 1011.0 |
| 20260505182604 | 54 | 350 | 0.0 | 2.0 | 0.01 | 0.57 | 0.57 | 89 | 1010.9 |
| 20260505182504 | 54 | 350 | 0.0 | 2.0 | 0.01 | 0.57 | 0.57 | 90 | 1010.9 |
| 20260505182410 | 54 | 350 | 0.0 | 1.0 | 0.01 | 0.57 | 0.57 | 89 | 1011.0 |
| 20260505182306 | 54 | 350 | 0.0 | 1.0 | 0.01 | 0.57 | 0.57 | 89 | 1011.0 |
| 20260505182203 | 54 | 350 | 0.0 | 1.0 | 0.01 | 0.57 | 0.57 | 89 | 1011.0 |
| 20260505182115 | 54 | 350 | 0.0 | 1.0 | 0.01 | 0.57 | 0.57 | 90 | 1010.9 |
| 20260505181904 | 54 | 350 | 0.0 | 1.0 | 0.01 | 0.57 | 0.57 | 89 | 1011.0 |
| 20260505181804 | 54 | 350 | 0.0 | 1.0 | 0.01 | 0.57 | 0.57 | 89 | 1011.0 |
| 20260505181704 | 54 | 350 | 0.0 | 1.0 | 0.01 | 0.57 | 0.57 | 90 | 1010.9 |
| 20260505181604 | 54 | 350 | 0.0 | 1.0 | 0.01 | 0.57 | 0.57 | 90 | 1010.9 |
| 20260505181505 | 54 | 350 | 0.0 | 1.0 | 0.01 | 0.57 | 0.57 | 89 | 1010.9 |
| 20260505181403 | 54 | 350 | 0.0 | 1.0 | 0.01 | 0.57 | 0.57 | 89 | 1010.9 |
| 20260505181304 | 54 | 350 | 0.0 | 1.0 | 0.01 | 0.57 | 0.57 | 89 | 1010.9 |
| 20260505181103 | 54 | 350 | 0.0 | 1.0 | 0.01 | 0.57 | 0.57 | 90 | 1010.9 |
| 20260505181005 | 54 | 350 | 0.0 | 2.0 | 0.01 | 0.57 | 0.57 | 89 | 1011.0 |
| 20260505180903 | 54 | 350 | 0.0 | 2.0 | 0.01 | 0.57 | 0.57 | 89 | 1011.0 |
| 20260505180809 | 54 | 350 | 0.0 | 2.0 | 0.01 | 0.57 | 0.57 | 90 | 1010.9 |
| 20260505180604 | 54 | 350 | 0.0 | 2.0 | 0.01 | 0.57 | 0.57 | 89 | 1010.9 |
| 20260505180404 | 54 | 349 | 0.0 | 2.0 | 0.01 | 0.57 | 0.57 | 89 | 1010.9 |
| 20260505180203 | 54 | 349 | 1.0 | 2.0 | 0.01 | 0.57 | 0.57 | 89 | 1010.9 |
| 20260505180104 | 54 | 349 | 1.0 | 2.0 | 0.01 | 0.57 | 0.57 | 89 | 1010.8 |
| 20260505180004 | 54 | 349 | 0.0 | 2.0 | 0.01 | 0.57 | 0.57 | 89 | 1011.0 |
| 20260505175803 | 54 | 350 | 1.0 | 2.0 | 0.01 | 0.57 | 0.57 | 89 | 1011.0 |
| 20260505175704 | 54 | 350 | 1.0 | 2.0 | 0.01 | 0.57 | 0.57 | 89 | 1010.9 |
| 20260505175604 | 54 | 351 | 1.0 | 2.0 | 0.01 | 0.57 | 0.57 | 89 | 1011.0 |
| 20260505175510 | 54 | 352 | 1.0 | 2.0 | 0.01 | 0.57 | 0.57 | 89 | 1010.9 |
| 20260505175404 | 54 | 352 | 0.0 | 2.0 | 0.01 | 0.57 | 0.57 | 89 | 1010.9 |
| 20260505175305 | 54 | 353 | 0.0 | 2.0 | 0.01 | 0.57 | 0.57 | 89 | 1010.9 |
| 20260505175104 | 54 | 354 | 1.0 | 2.0 | 0.01 | 0.57 | 0.57 | 89 | 1010.9 |
| 20260505175004 | 54 | 355 | 1.0 | 2.0 | 0.00 | 0.57 | 0.57 | 89 | 1011.0 |
| 20260505174904 | 54 | 356 | 0.0 | 2.0 | 0.00 | 0.57 | 0.57 | 89 | 1011.0 |
| 20260505174803 | 54 | 357 | 0.0 | 2.0 | 0.00 | 0.57 | 0.57 | 89 | 1010.9 |
| 20260505174605 | 54 | 355 | 0.0 | 2.0 | 0.00 | 0.57 | 0.57 | 89 | 1011.0 |
| 20260505174504 | 54 | 354 | 0.0 | 2.0 | 0.00 | 0.57 | 0.57 | 89 | 1011.0 |
| 20260505174404 | 54 | 354 | 0.0 | 2.0 | 0.00 | 0.57 | 0.57 | 89 | 1010.8 |
| 20260505174303 | 54 | 354 | 1.0 | 2.0 | 0.00 | 0.57 | 0.57 | 89 | 1010.9 |
| 20260505174209 | 54 | 352 | 0.0 | 2.0 | 0.00 | 0.57 | 0.57 | 89 | 1010.9 |
| 20260505174104 | 54 | 352 | 0.0 | 2.0 | 0.00 | 0.57 | 0.57 | 89 | 1010.9 |
| 20260505173916 | 54 | 351 | 0.0 | 1.0 | 0.00 | 0.57 | 0.57 | 89 | 1010.9 |
| 20260505173804 | 54 | 351 | 0.0 | 1.0 | 0.00 | 0.57 | 0.57 | 89 | 1010.9 |
| 20260505173703 | 54 | 351 | 0.0 | 1.0 | 0.00 | 0.57 | 0.57 | 89 | 1011.0 |
| 20260505173603 | 54 | 351 | 0.0 | 1.0 | 0.00 | 0.57 | 0.57 | 89 | 1010.9 |
| 20260505173504 | 54 | 352 | 0.0 | 1.0 | 0.00 | 0.57 | 0.57 | 89 | 1010.9 |
| 20260505173404 | 54 | 352 | 0.0 | 1.0 | 0.00 | 0.57 | 0.57 | 89 | 1010.9 |
| 20260505173304 | 54 | 352 | 0.0 | 1.0 | 0.00 | 0.57 | 0.57 | 89 | 1010.9 |
| 20260505173204 | 54 | 351 | 0.0 | 1.0 | 0.00 | 0.57 | 0.57 | 89 | 1010.9 |
| 20260505173004 | 54 | 351 | 0.0 | 2.0 | 0.00 | 0.57 | 0.57 | 89 | 1011.0 |
| 20260505172904 | 54 | 351 | 0.0 | 2.0 | 0.00 | 0.57 | 0.57 | 89 | 1011.0 |
| 20260505172704 | 54 | 352 | 0.0 | 2.0 | 0.00 | 0.57 | 0.57 | 89 | 1010.9 |
| 20260505172610 | 54 | 352 | 0.0 | 2.0 | 0.00 | 0.57 | 0.57 | 89 | 1011.0 |
| 20260505172504 | 54 | 352 | 0.0 | 2.0 | 0.00 | 0.57 | 0.57 | 89 | 1011.0 |
| 20260505172204 | 54 | 20 | 1.0 | 2.0 | 0.00 | 0.57 | 0.57 | 90 | 1011.0 |
| 20260505172103 | 54 | 44 | 1.0 | 2.0 | 0.00 | 0.57 | 0.57 | 90 | 1011.0 |
| 20260505172004 | 54 | 69 | 1.0 | 2.0 | 0.00 | 0.57 | 0.57 | 89 | 1010.9 |
| 20260505171904 | 54 | 85 | 1.0 | 3.0 | 0.00 | 0.57 | 0.57 | 90 | 1011.0 |
| 20260505171804 | 54 | 95 | 1.0 | 3.0 | 0.00 | 0.57 | 0.57 | 89 | 1011.0 |
| 20260505171504 | 54 | 115 | 1.0 | 3.0 | 0.00 | 0.57 | 0.57 | 89 | 1011.0 |
| 20260505171404 | 54 | 121 | 1.0 | 3.0 | 0.00 | 0.57 | 0.57 | 89 | 1011.0 |
| 20260505171205 | 54 | 123 | 1.0 | 3.0 | 0.00 | 0.57 | 0.57 | 89 | 1011.1 |
| 20260505171104 | 54 | 124 | 1.0 | 3.0 | 0.00 | 0.57 | 0.57 | 89 | 1011.1 |
| 20260505171009 | 54 | 125 | 1.0 | 3.0 | 0.00 | 0.57 | 0.57 | 89 | 1011.1 |
| 20260505170904 | 54 | 125 | 1.0 | 3.0 | 0.00 | 0.57 | 0.57 | 90 | 1011.1 |
| 20260505170805 | 54 | 126 | 1.0 | 2.0 | 0.00 | 0.57 | 0.57 | 89 | 1011.0 |
| 20260505170604 | 54 | 126 | 1.0 | 2.0 | 0.00 | 0.57 | 0.57 | 89 | 1011.0 |
| 20260505170504 | 54 | 126 | 1.0 | 2.0 | 0.00 | 0.57 | 0.57 | 89 | 1011.0 |
| 20260505170403 | 54 | 125 | 1.0 | 2.0 | 0.00 | 0.57 | 0.57 | 89 | 1011.0 |
| 20260505170304 | 54 | 125 | 1.0 | 2.0 | 0.00 | 0.57 | 0.57 | 89 | 1011.1 |
| 20260505170203 | 54 | 124 | 1.0 | 2.0 | 0.00 | 0.57 | 0.57 | 89 | 1011.1 |
| 20260505170004 | 54 | 123 | 1.0 | 1.0 | 0.00 | 0.57 | 0.57 | 89 | 1011.1 |
| 20260505165804 | 54 | 123 | 1.0 | 2.0 | 0.00 | 0.57 | 0.57 | 89 | 1011.1 |
| 20260505165704 | 54 | 123 | 1.0 | 2.0 | 0.00 | 0.57 | 0.57 | 89 | 1011.2 |
| 20260505165604 | 54 | 123 | 1.0 | 2.0 | 0.00 | 0.57 | 0.57 | 90 | 1011.2 |
| 20260505165504 | 54 | 123 | 0.0 | 2.0 | 0.00 | 0.57 | 0.57 | 90 | 1011.1 |
| 20260505165306 | 54 | 123 | 0.0 | 2.0 | 0.00 | 0.57 | 0.57 | 89 | 1011.1 |
| 20260505165204 | 54 | 123 | 0.0 | 2.0 | 0.00 | 0.57 | 0.57 | 89 | 1011.2 |
| 20260505165116 | 54 | 123 | 0.0 | 2.0 | 0.00 | 0.57 | 0.57 | 89 | 1011.1 |
| 20260505165004 | 54 | 124 | 0.0 | 2.0 | 0.00 | 0.57 | 0.57 | 89 | 1011.2 |
| 20260505164804 | 54 | 125 | 0.0 | 1.0 | 0.00 | 0.57 | 0.57 | 89 | 1011.1 |
| 20260505164703 | 54 | 125 | 0.0 | 1.0 | 0.00 | 0.57 | 0.57 | 89 | 1011.2 |
| 20260505164604 | 54 | 125 | 0.0 | 1.0 | 0.00 | 0.57 | 0.57 | 89 | 1011.1 |
| 20260505164403 | 54 | 125 | 0.0 | 1.0 | 0.00 | 0.57 | 0.57 | 89 | 1011.2 |
| 20260505164304 | 54 | 125 | 0.0 | 1.0 | 0.00 | 0.57 | 0.57 | 89 | 1011.2 |
| 20260505164204 | 54 | 125 | 0.0 | 1.0 | 0.00 | 0.57 | 0.57 | 89 | 1011.1 |
| 20260505164109 | 54 | 125 | 0.0 | 1.0 | 0.00 | 0.57 | 0.57 | 89 | 1011.2 |
| 20260505164004 | 54 | 125 | 0.0 | 1.0 | 0.00 | 0.57 | 0.57 | 89 | 1011.1 |
| 20260505163904 | 54 | 125 | 0.0 | 1.0 | 0.00 | 0.57 | 0.57 | 89 | 1011.2 |
| 20260505163815 | 54 | 125 | 0.0 | 1.0 | 0.00 | 0.57 | 0.57 | 89 | 1011.2 |
| 20260505163704 | 54 | 126 | 0.0 | 1.0 | 0.00 | 0.57 | 0.57 | 89 | 1011.2 |
| 20260505163604 | 54 | 126 | 0.0 | 1.0 | 0.00 | 0.57 | 0.57 | 89 | 1011.2 |
| 20260505163504 | 54 | 127 | 0.0 | 1.0 | 0.00 | 0.57 | 0.57 | 89 | 1011.2 |
| 20260505163404 | 54 | 128 | 0.0 | 1.0 | 0.00 | 0.57 | 0.57 | 89 | 1011.2 |
| 20260505163304 | 54 | 129 | 0.0 | 1.0 | 0.00 | 0.57 | 0.57 | 89 | 1011.2 |
| 20260505163204 | 54 | 126 | 0.0 | 1.0 | 0.00 | 0.57 | 0.57 | 88 | 1011.2 |
| 20260505163004 | 54 | 75 | 0.0 | 1.0 | 0.00 | 0.57 | 0.57 | 88 | 1011.3 |
| 20260505162903 | 54 | 72 | 0.0 | 1.0 | 0.00 | 0.57 | 0.57 | 88 | 1011.2 |
| 20260505162806 | 54 | 65 | 0.0 | 1.0 | 0.00 | 0.57 | 0.57 | 88 | 1011.4 |
| 20260505162704 | 54 | 48 | 0.0 | 1.0 | 0.00 | 0.57 | 0.57 | 88 | 1011.2 |
| 20260505162604 | 54 | 43 | 0.0 | 1.0 | 0.00 | 0.57 | 0.57 | 88 | 1011.3 |
| 20260505162515 | 54 | 30 | 0.0 | 1.0 | 0.00 | 0.57 | 0.57 | 88 | 1011.2 |
| 20260505162404 | 54 | 21 | 0.0 | 1.0 | 0.00 | 0.57 | 0.57 | 88 | 1011.2 |
| 20260505162203 | 54 | 15 | 0.0 | 1.0 | 0.00 | 0.57 | 0.57 | 88 | 1011.2 |
| 20260505162004 | 54 | 35 | 0.0 | 1.0 | 0.00 | 0.57 | 0.57 | 88 | 1011.2 |
| 20260505161905 | 54 | 36 | 0.0 | 1.0 | 0.00 | 0.57 | 0.57 | 88 | 1011.4 |
| 20260505161803 | 54 | 42 | 0.0 | 1.0 | 0.00 | 0.57 | 0.57 | 88 | 1011.3 |
| 20260505161505 | 54 | 72 | 0.0 | 1.0 | 0.00 | 0.57 | 0.57 | 87 | 1011.3 |
| 20260505161404 | 54 | 81 | 0.0 | 1.0 | 0.00 | 0.57 | 0.57 | 87 | 1011.3 |
| 20260505161303 | 54 | 88 | 0.0 | 1.0 | 0.00 | 0.57 | 0.57 | 88 | 1011.4 |
| 20260505161207 | 54 | 89 | 0.0 | 1.0 | 0.00 | 0.57 | 0.57 | 87 | 1011.3 |
| 20260505161104 | 54 | 89 | 0.0 | 1.0 | 0.00 | 0.57 | 0.57 | 87 | 1011.3 |
| 20260505161004 | 54 | 95 | 0.0 | 1.0 | 0.00 | 0.57 | 0.57 | 87 | 1011.3 |
| 20260505160915 | 54 | 98 | 0.0 | 1.0 | 0.00 | 0.57 | 0.57 | 87 | 1011.2 |
| 20260505160805 | 54 | 111 | 0.0 | 1.0 | 0.00 | 0.57 | 0.57 | 87 | 1011.4 |
| 20260505160704 | 54 | 111 | 0.0 | 1.0 | 0.00 | 0.57 | 0.57 | 87 | 1011.2 |
| 20260505160603 | 54 | 110 | 0.0 | 1.0 | 0.00 | 0.57 | 0.57 | 87 | 1011.3 |
| 20260505160504 | 54 | 108 | 0.0 | 1.0 | 0.00 | 0.57 | 0.57 | 88 | 1011.2 |
| 20260505160403 | 54 | 106 | 0.0 | 1.0 | 0.00 | 0.57 | 0.57 | 87 | 1011.3 |
| 20260505160303 | 54 | 98 | 0.0 | 1.0 | 0.00 | 0.57 | 0.57 | 87 | 1011.3 |
| 20260505160204 | 54 | 95 | 0.0 | 1.0 | 0.00 | 0.57 | 0.57 | 88 | 1011.2 |
| 20260505160104 | 54 | 95 | 0.0 | 1.0 | 0.00 | 0.57 | 0.57 | 88 | 1011.3 |
| 20260505153204 | 54 | 21 | 1.0 | 3.0 | 0.00 | 0.57 | 0.57 | 88 | 1011.6 |
| 20260505153105 | 54 | 10 | 1.0 | 3.0 | 0.00 | 0.57 | 0.57 | 88 | 1011.6 |
| 20260505153015 | 54 | 6 | 1.0 | 3.0 | 0.00 | 0.57 | 0.57 | 88 | 1011.6 |
| 20260505152904 | 54 | 6 | 1.0 | 3.0 | 0.00 | 0.57 | 0.57 | 88 | 1011.6 |
| 20260505152804 | 54 | 6 | 1.0 | 3.0 | 0.00 | 0.57 | 0.57 | 88 | 1011.5 |
| 20260505152704 | 54 | 6 | 1.0 | 3.0 | 0.00 | 0.57 | 0.57 | 88 | 1011.5 |
| 20260505152604 | 54 | 6 | 1.0 | 3.0 | 0.00 | 0.57 | 0.57 | 87 | 1011.5 |
| 20260505152504 | 54 | 2 | 1.0 | 3.0 | 0.00 | 0.57 | 0.57 | 88 | 1011.4 |
| 20260505152403 | 54 | 342 | 1.0 | 2.0 | 0.00 | 0.57 | 0.57 | 88 | 1011.6 |
| 20260505152305 | 54 | 335 | 1.0 | 2.0 | 0.00 | 0.57 | 0.57 | 88 | 1011.5 |
| 20260505152204 | 54 | 337 | 0.0 | 2.0 | 0.00 | 0.57 | 0.57 | 88 | 1011.6 |
| 20260505152104 | 54 | 352 | 0.0 | 2.0 | 0.00 | 0.57 | 0.57 | 88 | 1011.5 |
| 20260505152004 | 54 | 355 | 0.0 | 2.0 | 0.00 | 0.57 | 0.57 | 88 | 1011.5 |
| 20260505151904 | 54 | 352 | 0.0 | 2.0 | 0.00 | 0.57 | 0.57 | 88 | 1011.4 |
| 20260505151708 | 54 | 349 | 1.0 | 2.0 | 0.00 | 0.57 | 0.57 | 88 | 1011.5 |
| 20260505151605 | 54 | 343 | 1.0 | 2.0 | 0.00 | 0.57 | 0.57 | 88 | 1011.5 |
| 20260505151504 | 54 | 340 | 1.0 | 2.0 | 0.00 | 0.57 | 0.57 | 89 | 1011.6 |
| 20260505151414 | 54 | 331 | 1.0 | 2.0 | 0.00 | 0.57 | 0.57 | 89 | 1011.6 |
| 20260505151304 | 54 | 326 | 0.0 | 2.0 | 0.00 | 0.57 | 0.57 | 88 | 1011.7 |
| 20260505151204 | 54 | 318 | 0.0 | 2.0 | 0.00 | 0.57 | 0.57 | 88 | 1011.6 |
| 20260505151104 | 54 | 274 | 0.0 | 2.0 | 0.00 | 0.57 | 0.57 | 88 | 1011.5 |
| 20260505151004 | 54 | 260 | 0.0 | 2.0 | 0.00 | 0.57 | 0.57 | 88 | 1011.6 |
| 20260505150903 | 54 | 232 | 0.0 | 2.0 | 0.00 | 0.57 | 0.57 | 89 | 1011.5 |
| 20260505150804 | 54 | 225 | 0.0 | 2.0 | 0.00 | 0.57 | 0.57 | 89 | 1011.6 |
| 20260505150504 | 54 | 217 | 0.0 | 2.0 | 0.00 | 0.57 | 0.57 | 88 | 1011.5 |
| 20260505150410 | 54 | 218 | 0.0 | 2.0 | 0.00 | 0.57 | 0.57 | 88 | 1011.6 |
| 20260505150303 | 54 | 218 | 0.0 | 2.0 | 0.00 | 0.57 | 0.57 | 89 | 1011.6 |
| 20260505150204 | 54 | 218 | 0.0 | 2.0 | 0.00 | 0.57 | 0.57 | 89 | 1011.4 |
| 20260505140616 | 53 | 356 | 2.0 | 4.0 | 0.02 | 0.57 | 0.57 | 90 | 1011.8 |
| 20260505140504 | 53 | 356 | 2.0 | 4.0 | 0.02 | 0.57 | 0.57 | 89 | 1011.8 |
| 20260505140404 | 53 | 355 | 2.0 | 4.0 | 0.02 | 0.57 | 0.57 | 90 | 1011.8 |
| 20260505140304 | 53 | 352 | 2.0 | 4.0 | 0.02 | 0.57 | 0.57 | 90 | 1011.7 |
| 20260505140205 | 53 | 350 | 2.0 | 4.0 | 0.02 | 0.57 | 0.57 | 90 | 1011.7 |
| 20260505140103 | 53 | 353 | 2.0 | 4.0 | 0.02 | 0.57 | 0.57 | 90 | 1011.7 |
| 20260505130304 | 54 | 9 | 3.0 | 5.0 | 0.01 | 0.55 | 0.55 | 89 | 1012.1 |
| 20260505130203 | 54 | 9 | 3.0 | 5.0 | 0.01 | 0.55 | 0.55 | 89 | 1012.1 |
| 20260505130104 | 54 | 6 | 2.0 | 5.0 | 0.01 | 0.55 | 0.55 | 89 | 1012.1 |
| 20260505125004 | 54 | 3 | 2.0 | 4.0 | 0.02 | 0.55 | 0.55 | 89 | 1012.1 |
| 20260505124903 | 54 | 2 | 2.0 | 4.0 | 0.02 | 0.55 | 0.55 | 89 | 1012.1 |
| 20260505124803 | 54 | 1 | 2.0 | 5.0 | 0.01 | 0.54 | 0.54 | 89 | 1012.2 |
| 20260505124704 | 54 | 359 | 2.0 | 5.0 | 0.01 | 0.54 | 0.54 | 89 | 1012.1 |
| 20260505124604 | 54 | 357 | 2.0 | 6.0 | 0.01 | 0.54 | 0.54 | 89 | 1012.2 |
| 20260505124504 | 54 | 357 | 3.0 | 6.0 | 0.01 | 0.54 | 0.54 | 89 | 1012.1 |
| 20260505124304 | 54 | 358 | 3.0 | 6.0 | 0.01 | 0.54 | 0.54 | 89 | 1012.1 |
| 20260505124208 | 54 | 357 | 3.0 | 6.0 | 0.01 | 0.54 | 0.54 | 89 | 1012.1 |
| 20260505124103 | 54 | 356 | 2.0 | 6.0 | 0.01 | 0.54 | 0.54 | 89 | 1012.1 |
| 20260505124005 | 54 | 355 | 3.0 | 6.0 | 0.01 | 0.54 | 0.54 | 89 | 1012.1 |
| 20260505123804 | 54 | 356 | 3.0 | 6.0 | 0.01 | 0.54 | 0.54 | 88 | 1012.0 |
| 20260505123604 | 54 | 359 | 3.0 | 6.0 | 0.01 | 0.54 | 0.54 | 89 | 1012.0 |
| 20260505123504 | 54 | 358 | 3.0 | 6.0 | 0.01 | 0.54 | 0.54 | 88 | 1012.0 |
| 20260505123404 | 54 | 358 | 3.0 | 6.0 | 0.01 | 0.54 | 0.54 | 89 | 1012.0 |
| 20260505123304 | 54 | 356 | 3.0 | 6.0 | 0.01 | 0.54 | 0.54 | 89 | 1012.1 |
| 20260505123203 | 54 | 354 | 3.0 | 6.0 | 0.01 | 0.54 | 0.54 | 88 | 1012.1 |
| 20260505123104 | 54 | 356 | 3.0 | 6.0 | 0.01 | 0.54 | 0.54 | 88 | 1011.9 |
| 20260505122903 | 54 | 356 | 3.0 | 6.0 | 0.01 | 0.54 | 0.54 | 88 | 1011.9 |
| 20260505122703 | 54 | 356 | 4.0 | 7.0 | 0.01 | 0.54 | 0.54 | 88 | 1011.9 |
| 20260505122610 | 54 | 355 | 4.0 | 7.0 | 0.01 | 0.54 | 0.54 | 88 | 1011.9 |
| 20260505122403 | 54 | 355 | 4.0 | 7.0 | 0.01 | 0.54 | 0.54 | 88 | 1012.0 |
| 20260505122315 | 54 | 357 | 4.0 | 7.0 | 0.01 | 0.54 | 0.54 | 88 | 1012.0 |
| 20260505122204 | 54 | 1 | 4.0 | 7.0 | 0.01 | 0.54 | 0.54 | 88 | 1012.0 |
| 20260505122103 | 54 | 359 | 4.0 | 7.0 | 0.01 | 0.54 | 0.54 | 88 | 1012.0 |
| 20260505122004 | 54 | 359 | 3.0 | 7.0 | 0.01 | 0.54 | 0.54 | 88 | 1012.1 |
| 20260505121803 | 54 | 358 | 3.0 | 6.0 | 0.01 | 0.54 | 0.54 | 88 | 1012.0 |
| 20260505121704 | 54 | 357 | 3.0 | 6.0 | 0.01 | 0.54 | 0.54 | 88 | 1012.0 |
| 20260505121504 | 54 | 357 | 3.0 | 6.0 | 0.01 | 0.54 | 0.54 | 88 | 1012.1 |
| 20260505121404 | 54 | 358 | 3.0 | 6.0 | 0.01 | 0.54 | 0.54 | 88 | 1012.0 |
| 20260505121307 | 54 | 358 | 3.0 | 6.0 | 0.01 | 0.54 | 0.54 | 88 | 1012.0 |
| 20260505121204 | 54 | 355 | 3.0 | 6.0 | 0.01 | 0.54 | 0.54 | 88 | 1012.0 |
| 20260505121103 | 54 | 358 | 3.0 | 6.0 | 0.01 | 0.54 | 0.54 | 88 | 1012.0 |
| 20260505121014 | 54 | 359 | 3.0 | 6.0 | 0.01 | 0.54 | 0.54 | 88 | 1012.1 |
| 20260505120904 | 54 | 6 | 3.0 | 6.0 | 0.02 | 0.54 | 0.54 | 88 | 1012.0 |
| 20260505120803 | 54 | 8 | 3.0 | 6.0 | 0.02 | 0.54 | 0.54 | 88 | 1011.9 |
| 20260505120703 | 54 | 12 | 3.0 | 5.0 | 0.02 | 0.54 | 0.54 | 88 | 1012.0 |
| 20260505120603 | 54 | 15 | 2.0 | 5.0 | 0.02 | 0.54 | 0.54 | 88 | 1012.0 |
| 20260505120504 | 54 | 16 | 2.0 | 7.0 | 0.02 | 0.54 | 0.54 | 88 | 1012.0 |
| 20260505120404 | 54 | 12 | 3.0 | 7.0 | 0.02 | 0.54 | 0.54 | 88 | 1012.0 |
| 20260505120304 | 54 | 11 | 3.0 | 7.0 | 0.02 | 0.54 | 0.54 | 88 | 1012.0 |
| 20260505120204 | 54 | 12 | 3.0 | 7.0 | 0.02 | 0.54 | 0.54 | 88 | 1012.1 |
| 20260505120104 | 54 | 10 | 3.0 | 7.0 | 0.02 | 0.54 | 0.54 | 88 | 1012.0 |
| 20260505120009 | 54 | 9 | 3.0 | 7.0 | 0.02 | 0.54 | 0.54 | 88 | 1012.1 |
| 20260505115903 | 54 | 9 | 4.0 | 7.0 | 0.02 | 0.54 | 0.54 | 88 | 1012.0 |
| 20260505115604 | 54 | 10 | 4.0 | 7.0 | 0.02 | 0.54 | 0.54 | 88 | 1012.1 |
| 20260505115504 | 54 | 9 | 4.0 | 7.0 | 0.01 | 0.54 | 0.54 | 88 | 1012.1 |
| 20260505115403 | 54 | 11 | 4.0 | 6.0 | 0.01 | 0.54 | 0.54 | 88 | 1012.1 |
| 20260505115305 | 54 | 10 | 4.0 | 6.0 | 0.01 | 0.54 | 0.54 | 88 | 1012.1 |
| 20260505115204 | 54 | 10 | 4.0 | 7.0 | 0.01 | 0.54 | 0.54 | 88 | 1012.2 |
| 20260505115005 | 54 | 10 | 4.0 | 7.0 | 0.01 | 0.54 | 0.54 | 87 | 1012.1 |
| 20260505114904 | 54 | 7 | 4.0 | 7.0 | 0.01 | 0.54 | 0.54 | 88 | 1012.1 |
| 20260505114804 | 55 | 5 | 4.0 | 7.0 | 0.01 | 0.54 | 0.54 | 88 | 1012.0 |
| 20260505114704 | 55 | 4 | 4.0 | 7.0 | 0.01 | 0.54 | 0.54 | 88 | 1012.1 |
| 20260505114603 | 55 | 2 | 4.0 | 7.0 | 0.01 | 0.54 | 0.54 | 88 | 1012.1 |
| 20260505114408 | 55 | 3 | 4.0 | 7.0 | 0.01 | 0.54 | 0.54 | 87 | 1012.1 |
| 20260505114304 | 55 | 4 | 4.0 | 7.0 | 0.01 | 0.54 | 0.54 | 87 | 1012.1 |
| 20260505114203 | 55 | 3 | 4.0 | 7.0 | 0.01 | 0.54 | 0.54 | 87 | 1012.2 |
| 20260505114115 | 55 | 3 | 4.0 | 7.0 | 0.01 | 0.54 | 0.54 | 88 | 1012.1 |
| 20260505113904 | 55 | 359 | 4.0 | 7.0 | 0.01 | 0.54 | 0.54 | 87 | 1012.2 |
| 20260505113804 | 55 | 358 | 4.0 | 7.0 | 0.01 | 0.54 | 0.54 | 87 | 1012.2 |
| 20260505113704 | 55 | 358 | 3.0 | 7.0 | 0.01 | 0.54 | 0.54 | 88 | 1012.2 |
| 20260505113605 | 55 | 1 | 3.0 | 7.0 | 0.01 | 0.54 | 0.54 | 87 | 1012.2 |
| 20260505113504 | 55 | 359 | 3.0 | 6.0 | 0.01 | 0.54 | 0.54 | 87 | 1012.1 |
| 20260505113403 | 55 | 358 | 3.0 | 6.0 | 0.01 | 0.54 | 0.54 | 87 | 1012.1 |
| 20260505113304 | 55 | 358 | 3.0 | 6.0 | 0.01 | 0.54 | 0.54 | 87 | 1012.1 |
| 20260505113204 | 55 | 359 | 3.0 | 6.0 | 0.01 | 0.54 | 0.54 | 87 | 1012.2 |
| 20260505113103 | 55 | 358 | 3.0 | 6.0 | 0.01 | 0.54 | 0.54 | 87 | 1012.1 |
| 20260505113004 | 55 | 3 | 3.0 | 6.0 | 0.01 | 0.54 | 0.54 | 87 | 1012.1 |
| 20260505112903 | 55 | 11 | 2.0 | 5.0 | 0.01 | 0.54 | 0.54 | 87 | 1012.1 |
| 20260505112810 | 55 | 15 | 3.0 | 5.0 | 0.01 | 0.54 | 0.54 | 87 | 1012.2 |
| 20260505112704 | 55 | 15 | 3.0 | 5.0 | 0.01 | 0.54 | 0.54 | 87 | 1012.2 |
| 20260505112604 | 55 | 16 | 3.0 | 6.0 | 0.01 | 0.54 | 0.54 | 86 | 1012.2 |
| 20260505112518 | 55 | 23 | 3.0 | 6.0 | 0.01 | 0.54 | 0.54 | 86 | 1012.2 |
| 20260505112104 | 55 | 61 | 3.0 | 6.0 | 0.01 | 0.54 | 0.54 | 86 | 1012.2 |
| 20260505111904 | 56 | 68 | 3.0 | 6.0 | 0.01 | 0.54 | 0.54 | 86 | 1012.1 |
| 20260505111804 | 56 | 68 | 3.0 | 6.0 | 0.01 | 0.54 | 0.54 | 87 | 1012.2 |
| 20260505111703 | 55 | 75 | 2.0 | 6.0 | 0.01 | 0.54 | 0.54 | 86 | 1012.3 |
| 20260505111604 | 55 | 76 | 2.0 | 5.0 | 0.01 | 0.54 | 0.54 | 86 | 1012.2 |
| 20260505111504 | 55 | 73 | 2.0 | 5.0 | 0.01 | 0.54 | 0.54 | 86 | 1012.2 |
| 20260505111405 | 55 | 68 | 2.0 | 5.0 | 0.01 | 0.54 | 0.54 | 87 | 1012.2 |
| 20260505111303 | 55 | 72 | 2.0 | 5.0 | 0.01 | 0.54 | 0.54 | 86 | 1012.2 |
| 20260505111204 | 55 | 68 | 1.0 | 5.0 | 0.01 | 0.54 | 0.54 | 87 | 1012.3 |
| 20260505111104 | 55 | 74 | 1.0 | 5.0 | 0.01 | 0.54 | 0.54 | 86 | 1012.2 |
| 20260505111005 | 55 | 66 | 1.0 | 3.0 | 0.00 | 0.53 | 0.53 | 86 | 1012.2 |
| 20260505110903 | 55 | 43 | 1.0 | 6.0 | 0.00 | 0.53 | 0.53 | 87 | 1012.2 |
| 20260505110804 | 55 | 23 | 2.0 | 7.0 | 0.00 | 0.53 | 0.53 | 87 | 1012.3 |
| 20260505110703 | 55 | 19 | 2.0 | 8.0 | 0.00 | 0.53 | 0.53 | 87 | 1012.3 |
| 20260505110603 | 55 | 15 | 2.0 | 8.0 | 0.00 | 0.53 | 0.53 | 86 | 1012.3 |
| 20260505110504 | 55 | 12 | 2.0 | 8.0 | 0.00 | 0.53 | 0.53 | 87 | 1012.3 |
| 20260505110404 | 55 | 8 | 2.0 | 8.0 | 0.00 | 0.53 | 0.53 | 87 | 1012.3 |
| 20260505110303 | 55 | 359 | 3.0 | 8.0 | 0.00 | 0.53 | 0.53 | 87 | 1012.4 |
| 20260505110204 | 55 | 354 | 3.0 | 8.0 | 0.00 | 0.53 | 0.53 | 87 | 1012.3 |
| 20260505110104 | 55 | 352 | 3.0 | 8.0 | 0.00 | 0.53 | 0.53 | 87 | 1012.3 |
| 20260505102204 | 55 | 355 | 2.0 | 5.0 | 0.01 | 0.53 | 0.53 | 88 | 1012.6 |
| 20260505102114 | 54 | 354 | 2.0 | 5.0 | 0.01 | 0.53 | 0.53 | 87 | 1012.5 |
| 20260505102004 | 54 | 352 | 2.0 | 5.0 | 0.01 | 0.53 | 0.53 | 87 | 1012.5 |
| 20260505101804 | 55 | 352 | 2.0 | 4.0 | 0.01 | 0.53 | 0.53 | 87 | 1012.5 |
| 20260505101704 | 55 | 350 | 2.0 | 4.0 | 0.01 | 0.53 | 0.53 | 87 | 1012.5 |
| 20260505101603 | 55 | 347 | 1.0 | 4.0 | 0.01 | 0.53 | 0.53 | 87 | 1012.5 |
| 20260505101504 | 55 | 345 | 1.0 | 4.0 | 0.01 | 0.53 | 0.53 | 87 | 1012.6 |
| 20260505101403 | 55 | 341 | 1.0 | 4.0 | 0.01 | 0.53 | 0.53 | 87 | 1012.5 |
| 20260505101304 | 55 | 327 | 1.0 | 3.0 | 0.01 | 0.53 | 0.53 | 87 | 1012.5 |
| 20260505101204 | 55 | 332 | 1.0 | 3.0 | 0.02 | 0.53 | 0.53 | 87 | 1012.5 |
| 20260505101108 | 55 | 335 | 1.0 | 3.0 | 0.02 | 0.53 | 0.53 | 88 | 1012.5 |
| 20260505101004 | 55 | 339 | 1.0 | 3.0 | 0.02 | 0.53 | 0.53 | 88 | 1012.4 |
| 20260505100814 | 55 | 343 | 1.0 | 3.0 | 0.02 | 0.53 | 0.53 | 88 | 1012.5 |
| 20260505100704 | 55 | 349 | 2.0 | 5.0 | 0.02 | 0.53 | 0.53 | 88 | 1012.6 |
| 20260505100603 | 54 | 352 | 2.0 | 5.0 | 0.02 | 0.53 | 0.53 | 87 | 1012.6 |
| 20260505100404 | 55 | 357 | 2.0 | 5.0 | 0.02 | 0.53 | 0.53 | 88 | 1012.5 |
| 20260505100304 | 55 | 359 | 2.0 | 5.0 | 0.02 | 0.53 | 0.53 | 88 | 1012.6 |
| 20260505100204 | 55 | 1 | 2.0 | 5.0 | 0.02 | 0.53 | 0.53 | 88 | 1012.6 |
| 20260505100004 | 55 | 5 | 2.0 | 5.0 | 0.02 | 0.53 | 0.53 | 88 | 1012.5 |
| 20260505095904 | 55 | 5 | 2.0 | 5.0 | 0.02 | 0.53 | 0.53 | 88 | 1012.5 |
| 20260505095703 | 55 | 4 | 2.0 | 4.0 | 0.02 | 0.53 | 0.53 | 88 | 1012.6 |
| 20260505095604 | 55 | 3 | 1.0 | 4.0 | 0.02 | 0.53 | 0.53 | 88 | 1012.5 |
| 20260505095515 | 55 | 4 | 1.0 | 4.0 | 0.02 | 0.53 | 0.53 | 88 | 1012.6 |
| 20260505095403 | 55 | 5 | 1.0 | 4.0 | 0.02 | 0.53 | 0.53 | 88 | 1012.6 |
| 20260505095204 | 54 | 3 | 1.0 | 3.0 | 0.02 | 0.53 | 0.53 | 88 | 1012.6 |
| 20260505095104 | 54 | 358 | 2.0 | 4.0 | 0.02 | 0.53 | 0.53 | 88 | 1012.7 |
| 20260505095004 | 54 | 359 | 2.0 | 5.0 | 0.02 | 0.53 | 0.53 | 88 | 1012.6 |
| 20260505094904 | 54 | 1 | 2.0 | 5.0 | 0.02 | 0.53 | 0.53 | 88 | 1012.6 |
| 20260505094805 | 54 | 359 | 2.0 | 5.0 | 0.02 | 0.53 | 0.53 | 88 | 1012.6 |
| 20260505094513 | 54 | 358 | 2.0 | 5.0 | 0.02 | 0.53 | 0.53 | 88 | 1012.7 |
| 20260505094403 | 54 | 355 | 2.0 | 5.0 | 0.02 | 0.53 | 0.53 | 88 | 1012.6 |
| 20260505094304 | 54 | 356 | 2.0 | 5.0 | 0.02 | 0.53 | 0.53 | 88 | 1012.6 |
| 20260505094203 | 54 | 355 | 2.0 | 5.0 | 0.02 | 0.53 | 0.53 | 87 | 1012.6 |
| 20260505094103 | 54 | 355 | 2.0 | 5.0 | 0.02 | 0.53 | 0.53 | 88 | 1012.7 |
| 20260505093903 | 54 | 355 | 2.0 | 4.0 | 0.02 | 0.53 | 0.53 | 88 | 1012.7 |
| 20260505093703 | 54 | 357 | 2.0 | 4.0 | 0.02 | 0.53 | 0.53 | 88 | 1012.7 |
| 20260505093604 | 54 | 354 | 1.0 | 3.0 | 0.02 | 0.53 | 0.53 | 88 | 1012.6 |
| 20260505093507 | 54 | 358 | 1.0 | 3.0 | 0.02 | 0.53 | 0.53 | 88 | 1012.7 |
| 20260505093404 | 54 | 356 | 1.0 | 3.0 | 0.02 | 0.53 | 0.53 | 88 | 1012.6 |
| 20260505093304 | 54 | 2 | 1.0 | 3.0 | 0.02 | 0.53 | 0.53 | 88 | 1012.6 |
| 20260505093214 | 54 | 3 | 1.0 | 3.0 | 0.02 | 0.53 | 0.53 | 88 | 1012.7 |
| 20260505093104 | 54 | 10 | 1.0 | 3.0 | 0.02 | 0.53 | 0.53 | 88 | 1012.6 |
| 20260505092903 | 54 | 6 | 1.0 | 3.0 | 0.02 | 0.53 | 0.53 | 88 | 1012.6 |
| 20260505092804 | 54 | 3 | 1.0 | 3.0 | 0.02 | 0.53 | 0.53 | 88 | 1012.6 |
| 20260505092704 | 54 | 349 | 1.0 | 3.0 | 0.01 | 0.52 | 0.52 | 88 | 1012.7 |
| 20260505092604 | 54 | 7 | 1.0 | 3.0 | 0.01 | 0.52 | 0.52 | 88 | 1012.7 |
| 20260505092504 | 54 | 1 | 1.0 | 3.0 | 0.01 | 0.52 | 0.52 | 88 | 1012.7 |
| 20260505092305 | 54 | 10 | 1.0 | 3.0 | 0.01 | 0.52 | 0.52 | 88 | 1012.7 |
| 20260505092212 | 54 | 16 | 1.0 | 3.0 | 0.02 | 0.52 | 0.52 | 88 | 1012.8 |
| 20260505092103 | 54 | 18 | 1.0 | 3.0 | 0.02 | 0.52 | 0.52 | 88 | 1012.8 |
| 20260505092004 | 54 | 25 | 1.0 | 3.0 | 0.02 | 0.52 | 0.52 | 88 | 1012.7 |
| 20260505091904 | 54 | 20 | 1.0 | 3.0 | 0.02 | 0.52 | 0.52 | 88 | 1012.8 |
| 20260505091603 | 54 | 21 | 1.0 | 3.0 | 0.02 | 0.52 | 0.52 | 88 | 1012.8 |
| 20260505091504 | 54 | 23 | 1.0 | 3.0 | 0.02 | 0.52 | 0.52 | 88 | 1012.7 |
| 20260505091404 | 54 | 24 | 1.0 | 3.0 | 0.02 | 0.52 | 0.52 | 88 | 1012.7 |
| 20260505091303 | 54 | 21 | 1.0 | 3.0 | 0.02 | 0.52 | 0.52 | 88 | 1012.7 |
| 20260505091207 | 54 | 17 | 1.0 | 3.0 | 0.01 | 0.51 | 0.51 | 88 | 1012.7 |
| 20260505091104 | 54 | 34 | 1.0 | 4.0 | 0.01 | 0.51 | 0.51 | 88 | 1012.7 |
| 20260505091004 | 54 | 46 | 1.0 | 4.0 | 0.01 | 0.51 | 0.51 | 89 | 1012.7 |
| 20260505090804 | 54 | 52 | 1.0 | 4.0 | 0.01 | 0.51 | 0.51 | 89 | 1012.7 |
| 20260505090504 | 54 | 73 | 1.0 | 4.0 | 0.01 | 0.51 | 0.51 | 89 | 1012.6 |
| 20260505090403 | 54 | 68 | 1.0 | 5.0 | 0.01 | 0.51 | 0.51 | 89 | 1012.6 |
| 20260505090304 | 54 | 69 | 2.0 | 5.0 | 0.01 | 0.51 | 0.51 | 89 | 1012.6 |
| 20260505090204 | 54 | 67 | 2.0 | 5.0 | 0.01 | 0.51 | 0.51 | 89 | 1012.6 |
| 20260505090004 | 54 | 66 | 2.0 | 5.0 | 0.01 | 0.51 | 0.51 | 90 | 1012.6 |
| 20260505085908 | 54 | 89 | 2.0 | 5.0 | 0.01 | 0.51 | 0.51 | 89 | 1012.5 |
| 20260505085804 | 53 | 90 | 2.0 | 5.0 | 0.01 | 0.51 | 0.51 | 89 | 1012.7 |
| 20260505085703 | 53 | 89 | 2.0 | 5.0 | 0.01 | 0.51 | 0.51 | 89 | 1012.6 |
| 20260505085504 | 54 | 92 | 2.0 | 5.0 | 0.02 | 0.51 | 0.51 | 89 | 1012.5 |
| 20260505085304 | 54 | 120 | 1.0 | 4.0 | 0.02 | 0.51 | 0.51 | 90 | 1012.6 |
| 20260505085204 | 54 | 119 | 1.0 | 4.0 | 0.02 | 0.51 | 0.51 | 90 | 1012.4 |
| 20260505085104 | 54 | 118 | 1.0 | 4.0 | 0.02 | 0.51 | 0.51 | 90 | 1012.6 |
| 20260505084903 | 54 | 90 | 1.0 | 4.0 | 0.02 | 0.51 | 0.51 | 90 | 1012.6 |
| 20260505084803 | 54 | 85 | 1.0 | 4.0 | 0.02 | 0.51 | 0.51 | 90 | 1012.6 |
| 20260505084703 | 54 | 70 | 1.0 | 2.0 | 0.02 | 0.51 | 0.51 | 90 | 1012.8 |
| 20260505084607 | 53 | 66 | 1.0 | 2.0 | 0.02 | 0.51 | 0.51 | 90 | 1012.7 |
| 20260505084504 | 53 | 63 | 1.0 | 2.0 | 0.02 | 0.51 | 0.51 | 90 | 1012.7 |
| 20260505084404 | 53 | 40 | 1.0 | 2.0 | 0.02 | 0.51 | 0.51 | 90 | 1012.7 |
| 20260505084203 | 53 | 1 | 1.0 | 4.0 | 0.02 | 0.51 | 0.51 | 90 | 1012.8 |
| 20260505084104 | 53 | 351 | 1.0 | 4.0 | 0.02 | 0.51 | 0.51 | 90 | 1012.8 |
| 20260505084004 | 53 | 350 | 1.0 | 4.0 | 0.02 | 0.51 | 0.51 | 90 | 1012.8 |
| 20260505083904 | 53 | 349 | 1.0 | 4.0 | 0.02 | 0.51 | 0.51 | 90 | 1012.7 |
| 20260505083803 | 53 | 350 | 1.0 | 4.0 | 0.03 | 0.51 | 0.51 | 90 | 1012.8 |
| 20260505083703 | 53 | 351 | 2.0 | 4.0 | 0.03 | 0.51 | 0.51 | 90 | 1012.8 |
| 20260505083604 | 53 | 353 | 2.0 | 6.0 | 0.03 | 0.51 | 0.51 | 90 | 1012.7 |
| 20260505083504 | 53 | 354 | 2.0 | 6.0 | 0.03 | 0.51 | 0.51 | 90 | 1012.8 |
| 20260505083404 | 53 | 355 | 3.0 | 6.0 | 0.03 | 0.51 | 0.51 | 90 | 1012.7 |
| 20260505083306 | 53 | 355 | 3.0 | 6.0 | 0.04 | 0.51 | 0.51 | 90 | 1012.7 |
| 20260505083204 | 53 | 354 | 3.0 | 6.0 | 0.04 | 0.51 | 0.51 | 90 | 1012.7 |
| 20260505083105 | 53 | 354 | 3.0 | 6.0 | 0.04 | 0.51 | 0.51 | 90 | 1012.8 |
| 20260505083013 | 53 | 356 | 3.0 | 6.0 | 0.04 | 0.51 | 0.51 | 90 | 1012.8 |
| 20260505082804 | 53 | 357 | 3.0 | 6.0 | 0.05 | 0.51 | 0.51 | 90 | 1012.7 |
| 20260505082703 | 53 | 357 | 3.0 | 6.0 | 0.06 | 0.51 | 0.51 | 90 | 1012.8 |
| 20260505082603 | 53 | 356 | 3.0 | 6.0 | 0.06 | 0.51 | 0.51 | 90 | 1012.7 |
| 20260505082404 | 53 | 355 | 3.0 | 6.0 | 0.06 | 0.51 | 0.51 | 90 | 1012.8 |
| 20260505082203 | 53 | 356 | 3.0 | 6.0 | 0.07 | 0.50 | 0.50 | 90 | 1012.8 |
| 20260505082103 | 53 | 357 | 3.0 | 6.0 | 0.07 | 0.50 | 0.50 | 90 | 1012.8 |
| 20260505082006 | 53 | 356 | 3.0 | 6.0 | 0.07 | 0.50 | 0.50 | 90 | 1012.8 |
| 20260505081904 | 53 | 356 | 3.0 | 6.0 | 0.08 | 0.50 | 0.50 | 90 | 1012.8 |
| 20260505081804 | 53 | 356 | 3.0 | 6.0 | 0.08 | 0.50 | 0.50 | 90 | 1012.8 |
| 20260505081603 | 53 | 359 | 4.0 | 6.0 | 0.09 | 0.50 | 0.50 | 90 | 1012.7 |
| 20260505081504 | 53 | 359 | 4.0 | 6.0 | 0.09 | 0.50 | 0.50 | 90 | 1012.7 |
| 20260505081403 | 53 | 358 | 3.0 | 6.0 | 0.10 | 0.50 | 0.50 | 91 | 1012.6 |
| 20260505081303 | 53 | 357 | 3.0 | 6.0 | 0.10 | 0.50 | 0.50 | 91 | 1012.8 |
| 20260505081204 | 53 | 355 | 4.0 | 6.0 | 0.10 | 0.50 | 0.50 | 91 | 1012.7 |
| 20260505081104 | 53 | 356 | 4.0 | 6.0 | 0.11 | 0.50 | 0.50 | 91 | 1012.7 |
| 20260505081004 | 53 | 356 | 4.0 | 6.0 | 0.11 | 0.50 | 0.50 | 91 | 1012.7 |
| 20260505080904 | 53 | 356 | 3.0 | 6.0 | 0.11 | 0.50 | 0.50 | 91 | 1012.7 |
| 20260505080805 | 53 | 359 | 3.0 | 6.0 | 0.11 | 0.50 | 0.50 | 91 | 1012.6 |
| 20260505080704 | 53 | 4 | 3.0 | 6.0 | 0.12 | 0.50 | 0.50 | 91 | 1012.7 |
| 20260505080604 | 53 | 5 | 3.0 | 6.0 | 0.12 | 0.50 | 0.50 | 91 | 1012.7 |
| 20260505080504 | 53 | 6 | 3.0 | 6.0 | 0.13 | 0.50 | 0.50 | 91 | 1012.7 |
| 20260505080405 | 53 | 12 | 3.0 | 7.0 | 0.13 | 0.50 | 0.50 | 91 | 1012.6 |
| 20260505080303 | 53 | 17 | 3.0 | 7.0 | 0.13 | 0.50 | 0.50 | 91 | 1012.6 |
| 20260505080203 | 52 | 26 | 3.0 | 7.0 | 0.14 | 0.50 | 0.50 | 91 | 1012.8 |
| 20260505080113 | 52 | 30 | 3.0 | 7.0 | 0.14 | 0.50 | 0.50 | 91 | 1012.8 |
| 20260505080004 | 52 | 29 | 3.0 | 7.0 | 0.14 | 0.50 | 0.50 | 91 | 1012.7 |
| 20260505075904 | 52 | 28 | 3.0 | 7.0 | 0.15 | 0.50 | 0.50 | 90 | 1012.8 |
| 20260505075803 | 52 | 27 | 3.0 | 7.0 | 0.15 | 0.50 | 0.50 | 91 | 1012.8 |
| 20260505075703 | 52 | 27 | 2.0 | 7.0 | 0.16 | 0.50 | 0.50 | 91 | 1012.8 |
| 20260505075603 | 52 | 26 | 2.0 | 7.0 | 0.15 | 0.50 | 0.50 | 90 | 1012.8 |
| 20260505075504 | 52 | 22 | 2.0 | 7.0 | 0.15 | 0.50 | 0.50 | 90 | 1012.8 |
| 20260505075304 | 52 | 15 | 2.0 | 6.0 | 0.16 | 0.50 | 0.50 | 91 | 1012.8 |
| 20260505075203 | 52 | 8 | 2.0 | 6.0 | 0.16 | 0.50 | 0.50 | 91 | 1012.8 |
| 20260505075105 | 52 | 6 | 2.0 | 6.0 | 0.16 | 0.50 | 0.50 | 91 | 1012.9 |
| 20260505075004 | 52 | 9 | 2.0 | 6.0 | 0.17 | 0.50 | 0.50 | 91 | 1012.9 |
| 20260505074813 | 52 | 7 | 2.0 | 6.0 | 0.17 | 0.50 | 0.50 | 91 | 1012.9 |
| 20260505074705 | 52 | 5 | 2.0 | 6.0 | 0.17 | 0.50 | 0.50 | 91 | 1012.8 |
| 20260505074604 | 53 | 1 | 1.0 | 4.0 | 0.17 | 0.50 | 0.50 | 91 | 1012.8 |
| 20260505074403 | 52 | 355 | 2.0 | 6.0 | 0.19 | 0.50 | 0.50 | 91 | 1012.8 |
| 20260505074303 | 52 | 354 | 2.0 | 6.0 | 0.19 | 0.50 | 0.50 | 91 | 1012.9 |
| 20260505074204 | 52 | 355 | 2.0 | 6.0 | 0.18 | 0.49 | 0.49 | 91 | 1012.9 |
| 20260505074004 | 52 | 351 | 3.0 | 6.0 | 0.19 | 0.49 | 0.49 | 91 | 1012.8 |
| 20260505073903 | 52 | 348 | 3.0 | 6.0 | 0.19 | 0.49 | 0.49 | 91 | 1012.8 |
| 20260505073805 | 52 | 348 | 4.0 | 6.0 | 0.18 | 0.48 | 0.48 | 91 | 1012.9 |
| 20260505073705 | 52 | 347 | 4.0 | 7.0 | 0.19 | 0.48 | 0.48 | 91 | 1012.8 |
| 20260505073514 | 52 | 348 | 4.0 | 7.0 | 0.20 | 0.48 | 0.48 | 91 | 1012.8 |
| 20260505073404 | 52 | 349 | 4.0 | 7.0 | 0.19 | 0.47 | 0.47 | 91 | 1012.8 |
| 20260505073303 | 52 | 350 | 4.0 | 7.0 | 0.20 | 0.47 | 0.47 | 91 | 1012.9 |
| 20260505073104 | 52 | 351 | 4.0 | 7.0 | 0.20 | 0.47 | 0.47 | 91 | 1012.8 |
| 20260505073005 | 52 | 350 | 4.0 | 7.0 | 0.19 | 0.46 | 0.46 | 91 | 1012.9 |
| 20260505072804 | 53 | 354 | 4.0 | 7.0 | 0.18 | 0.46 | 0.46 | 91 | 1012.8 |
| 20260505072704 | 53 | 354 | 4.0 | 7.0 | 0.19 | 0.46 | 0.46 | 91 | 1012.9 |
| 20260505072604 | 53 | 356 | 4.0 | 7.0 | 0.18 | 0.45 | 0.45 | 91 | 1012.7 |
| 20260505072507 | 52 | 357 | 4.0 | 7.0 | 0.18 | 0.45 | 0.45 | 91 | 1012.8 |
| 20260505072404 | 53 | 356 | 4.0 | 7.0 | 0.19 | 0.45 | 0.45 | 91 | 1012.8 |
| 20260505072305 | 53 | 353 | 4.0 | 7.0 | 0.18 | 0.44 | 0.44 | 91 | 1012.8 |
| 20260505072103 | 53 | 352 | 4.0 | 7.0 | 0.18 | 0.43 | 0.43 | 91 | 1012.8 |
| 20260505072004 | 53 | 353 | 4.0 | 7.0 | 0.17 | 0.43 | 0.43 | 90 | 1012.8 |
| 20260505071904 | 53 | 353 | 4.0 | 7.0 | 0.18 | 0.43 | 0.43 | 91 | 1012.8 |
| 20260505071704 | 53 | 350 | 4.0 | 7.0 | 0.18 | 0.42 | 0.42 | 90 | 1012.9 |
| 20260505071604 | 53 | 349 | 4.0 | 7.0 | 0.18 | 0.41 | 0.41 | 91 | 1012.8 |
| 20260505071506 | 53 | 348 | 4.0 | 7.0 | 0.18 | 0.41 | 0.41 | 91 | 1012.8 |
| 20260505071403 | 53 | 351 | 4.0 | 7.0 | 0.18 | 0.40 | 0.40 | 91 | 1012.7 |
| 20260505071304 | 53 | 355 | 4.0 | 7.0 | 0.18 | 0.40 | 0.40 | 90 | 1012.8 |
| 20260505071104 | 53 | 357 | 3.0 | 7.0 | 0.18 | 0.39 | 0.39 | 90 | 1012.7 |
| 20260505071003 | 53 | 1 | 3.0 | 7.0 | 0.18 | 0.39 | 0.39 | 90 | 1012.6 |
| 20260505070903 | 53 | 2 | 2.0 | 7.0 | 0.18 | 0.39 | 0.39 | 91 | 1012.6 |
| 20260505070804 | 53 | 12 | 2.0 | 7.0 | 0.17 | 0.39 | 0.39 | 91 | 1012.6 |
| 20260505070703 | 53 | 25 | 2.0 | 7.0 | 0.18 | 0.39 | 0.39 | 90 | 1012.6 |
| 20260505070603 | 53 | 34 | 2.0 | 7.0 | 0.18 | 0.38 | 0.38 | 91 | 1012.6 |
| 20260505070504 | 53 | 55 | 1.0 | 5.0 | 0.18 | 0.38 | 0.38 | 90 | 1012.6 |
| 20260505070404 | 53 | 58 | 1.0 | 5.0 | 0.17 | 0.37 | 0.37 | 90 | 1012.6 |
| 20260505070304 | 53 | 61 | 1.0 | 5.0 | 0.17 | 0.37 | 0.37 | 90 | 1012.5 |
| 20260505070104 | 52 | 44 | 1.0 | 5.0 | 0.17 | 0.36 | 0.36 | 90 | 1012.6 |
| 20260505070004 | 52 | 37 | 2.0 | 5.0 | 0.17 | 0.35 | 0.35 | 90 | 1012.6 |
| 20260505065903 | 52 | 38 | 2.0 | 5.0 | 0.17 | 0.35 | 0.35 | 90 | 1012.5 |
| 20260505065803 | 52 | 34 | 2.0 | 5.0 | 0.17 | 0.35 | 0.35 | 90 | 1012.6 |
| 20260505065704 | 52 | 34 | 2.0 | 5.0 | 0.17 | 0.35 | 0.35 | 90 | 1012.6 |
| 20260505065603 | 52 | 34 | 2.0 | 5.0 | 0.17 | 0.35 | 0.35 | 90 | 1012.4 |
| 20260505065504 | 52 | 31 | 1.0 | 5.0 | 0.17 | 0.35 | 0.35 | 90 | 1012.5 |
| 20260505065403 | 52 | 33 | 1.0 | 5.0 | 0.17 | 0.34 | 0.34 | 90 | 1012.5 |
| 20260505065304 | 52 | 32 | 1.0 | 5.0 | 0.17 | 0.34 | 0.34 | 90 | 1012.4 |
| 20260505065212 | 52 | 40 | 1.0 | 5.0 | 0.17 | 0.34 | 0.34 | 90 | 1012.4 |
| 20260505065104 | 52 | 57 | 1.0 | 5.0 | 0.17 | 0.33 | 0.33 | 90 | 1012.5 |
| 20260505065004 | 53 | 64 | 1.0 | 5.0 | 0.17 | 0.33 | 0.33 | 90 | 1012.5 |
| 20260505064803 | 53 | 67 | 1.0 | 3.0 | 0.17 | 0.32 | 0.32 | 90 | 1012.4 |
| 20260505064604 | 53 | 271 | 1.0 | 2.0 | 0.16 | 0.31 | 0.31 | 90 | 1012.4 |
| 20260505064504 | 53 | 304 | 1.0 | 2.0 | 0.17 | 0.31 | 0.31 | 90 | 1012.5 |
| 20260505064404 | 53 | 314 | 1.0 | 3.0 | 0.16 | 0.31 | 0.31 | 90 | 1012.3 |
| 20260505064303 | 53 | 318 | 1.0 | 4.0 | 0.17 | 0.31 | 0.31 | 90 | 1012.3 |
| 20260505064213 | 53 | 328 | 1.0 | 5.0 | 0.17 | 0.31 | 0.31 | 90 | 1012.3 |
| 20260505064004 | 53 | 337 | 3.0 | 9.0 | 0.16 | 0.30 | 0.30 | 90 | 1012.3 |
| 20260505063904 | 53 | 337 | 3.0 | 9.0 | 0.17 | 0.30 | 0.30 | 90 | 1012.3 |
| 20260505063803 | 53 | 338 | 3.0 | 9.0 | 0.16 | 0.29 | 0.29 | 90 | 1012.4 |
| 20260505063703 | 53 | 343 | 4.0 | 9.0 | 0.16 | 0.29 | 0.29 | 90 | 1012.4 |
| 20260505063603 | 53 | 344 | 4.0 | 9.0 | 0.15 | 0.28 | 0.28 | 90 | 1012.4 |
| 20260505063504 | 53 | 344 | 4.0 | 9.0 | 0.16 | 0.28 | 0.28 | 90 | 1012.4 |
| 20260505063403 | 53 | 345 | 4.0 | 9.0 | 0.16 | 0.28 | 0.28 | 90 | 1012.4 |
| 20260505063212 | 53 | 345 | 4.0 | 9.0 | 0.15 | 0.28 | 0.28 | 89 | 1012.4 |
| 20260505063104 | 53 | 345 | 3.0 | 9.0 | 0.16 | 0.28 | 0.28 | 89 | 1012.4 |
| 20260505063004 | 53 | 346 | 3.0 | 7.0 | 0.16 | 0.28 | 0.28 | 89 | 1012.4 |
| 20260505062803 | 53 | 351 | 2.0 | 6.0 | 0.16 | 0.27 | 0.27 | 89 | 1012.5 |
| 20260505062604 | 53 | 354 | 2.0 | 6.0 | 0.16 | 0.27 | 0.27 | 90 | 1012.4 |
| 20260505062304 | 53 | 357 | 2.0 | 4.0 | 0.15 | 0.25 | 0.25 | 89 | 1012.4 |
| 20260505062213 | 53 | 355 | 2.0 | 4.0 | 0.15 | 0.25 | 0.25 | 89 | 1012.5 |
| 20260505062104 | 53 | 356 | 2.0 | 4.0 | 0.15 | 0.25 | 0.25 | 89 | 1012.5 |
| 20260505061903 | 53 | 354 | 2.0 | 4.0 | 0.13 | 0.24 | 0.24 | 89 | 1012.4 |
| 20260505061803 | 53 | 354 | 2.0 | 4.0 | 0.13 | 0.24 | 0.24 | 89 | 1012.5 |
| 20260505061704 | 53 | 354 | 2.0 | 4.0 | 0.13 | 0.23 | 0.23 | 89 | 1012.4 |
| 20260505061604 | 53 | 354 | 2.0 | 4.0 | 0.13 | 0.23 | 0.23 | 89 | 1012.4 |
| 20260505061503 | 53 | 352 | 2.0 | 4.0 | 0.13 | 0.22 | 0.22 | 89 | 1012.4 |
| 20260505061404 | 53 | 353 | 2.0 | 4.0 | 0.13 | 0.22 | 0.22 | 89 | 1012.5 |
| 20260505061304 | 53 | 354 | 2.0 | 4.0 | 0.13 | 0.22 | 0.22 | 89 | 1012.5 |
| 20260505061205 | 53 | 352 | 2.0 | 4.0 | 0.12 | 0.21 | 0.21 | 89 | 1012.4 |
| 20260505061104 | 53 | 351 | 2.0 | 4.0 | 0.13 | 0.21 | 0.21 | 89 | 1012.4 |
| 20260505061004 | 53 | 351 | 2.0 | 4.0 | 0.13 | 0.21 | 0.21 | 89 | 1012.4 |
| 20260505060914 | 53 | 349 | 2.0 | 5.0 | 0.13 | 0.21 | 0.21 | 89 | 1012.4 |
| 20260505060803 | 53 | 350 | 2.0 | 5.0 | 0.12 | 0.20 | 0.20 | 89 | 1012.4 |
| 20260505060704 | 53 | 350 | 2.0 | 5.0 | 0.13 | 0.20 | 0.20 | 89 | 1012.4 |
| 20260505060603 | 53 | 350 | 2.0 | 5.0 | 0.12 | 0.20 | 0.20 | 89 | 1012.4 |
| 20260505060503 | 53 | 348 | 2.0 | 5.0 | 0.12 | 0.20 | 0.20 | 89 | 1012.4 |
| 20260505060404 | 53 | 346 | 2.0 | 5.0 | 0.12 | 0.20 | 0.20 | 89 | 1012.4 |
| 20260505060303 | 53 | 346 | 2.0 | 5.0 | 0.11 | 0.19 | 0.19 | 89 | 1012.3 |
| 20260505060204 | 53 | 345 | 2.0 | 5.0 | 0.12 | 0.19 | 0.19 | 89 | 1012.2 |
| 20260505060004 | 53 | 341 | 2.0 | 5.0 | 0.11 | 0.18 | 0.18 | 88 | 1012.3 |
| 20260505055912 | 53 | 339 | 2.0 | 5.0 | 0.11 | 0.18 | 0.18 | 88 | 1012.3 |
| 20260505055803 | 53 | 329 | 1.0 | 4.0 | 0.11 | 0.18 | 0.18 | 88 | 1012.2 |
| 20260505055704 | 53 | 304 | 1.0 | 4.0 | 0.10 | 0.17 | 0.17 | 88 | 1012.3 |
| 20260505055504 | 53 | 209 | 1.0 | 3.0 | 0.11 | 0.17 | 0.17 | 88 | 1012.2 |
| 20260505055304 | 53 | 167 | 1.0 | 3.0 | 0.11 | 0.17 | 0.17 | 88 | 1012.1 |
| 20260505055104 | 53 | 134 | 1.0 | 3.0 | 0.11 | 0.17 | 0.17 | 88 | 1012.1 |
| 20260505055003 | 53 | 83 | 1.0 | 3.0 | 0.10 | 0.16 | 0.16 | 88 | 1012.1 |
| 20260505054804 | 53 | 127 | 1.0 | 5.0 | 0.10 | 0.16 | 0.16 | 88 | 1012.2 |
| 20260505054603 | 53 | 134 | 2.0 | 5.0 | 0.10 | 0.15 | 0.15 | 88 | 1012.0 |
| 20260505054504 | 53 | 142 | 2.0 | 5.0 | 0.10 | 0.15 | 0.15 | 88 | 1012.1 |
| 20260505054403 | 53 | 145 | 2.0 | 5.0 | 0.10 | 0.15 | 0.15 | 88 | 1012.2 |
| 20260505054304 | 53 | 146 | 2.0 | 5.0 | 0.09 | 0.14 | 0.15 | 88 | 1012.1 |
| 20260505054203 | 53 | 146 | 1.0 | 5.0 | 0.09 | 0.14 | 0.14 | 88 | 1012.1 |
| 20260505054104 | 53 | 148 | 1.0 | 5.0 | 0.10 | 0.14 | 0.14 | 88 | 1012.1 |
| 20260505054004 | 53 | 151 | 1.0 | 5.0 | 0.10 | 0.14 | 0.14 | 88 | 1012.1 |
| 20260505053803 | 53 | 145 | 1.0 | 4.0 | 0.09 | 0.13 | 0.13 | 88 | 1012.1 |
| 20260505053603 | 53 | 346 | 1.0 | 3.0 | 0.09 | 0.13 | 0.13 | 87 | 1012.1 |
| 20260505053504 | 53 | 350 | 1.0 | 6.0 | 0.09 | 0.13 | 0.13 | 88 | 1012.1 |
| 20260505053403 | 53 | 353 | 2.0 | 7.0 | 0.09 | 0.13 | 0.13 | 88 | 1011.9 |
| 20260505053304 | 53 | 353 | 2.0 | 8.0 | 0.09 | 0.13 | 0.13 | 87 | 1012.0 |
| 20260505053204 | 53 | 355 | 2.0 | 8.0 | 0.09 | 0.12 | 0.12 | 87 | 1012.0 |
| 20260505053104 | 53 | 356 | 3.0 | 8.0 | 0.09 | 0.12 | 0.12 | 87 | 1012.0 |
| 20260505052910 | 53 | 358 | 3.0 | 8.0 | 0.08 | 0.11 | 0.11 | 87 | 1012.0 |
| 20260505052804 | 53 | 1 | 3.0 | 8.0 | 0.08 | 0.11 | 0.11 | 87 | 1012.0 |
| 20260505052704 | 53 | 3 | 3.0 | 8.0 | 0.08 | 0.11 | 0.11 | 87 | 1012.1 |
| 20260505052603 | 53 | 4 | 3.0 | 8.0 | 0.08 | 0.11 | 0.11 | 87 | 1012.0 |
| 20260505052403 | 53 | 6 | 2.0 | 8.0 | 0.08 | 0.11 | 0.11 | 87 | 1012.1 |
| 20260505052204 | 53 | 6 | 2.0 | 6.0 | 0.07 | 0.10 | 0.10 | 87 | 1012.1 |
| 20260505052103 | 53 | 4 | 2.0 | 6.0 | 0.07 | 0.10 | 0.10 | 87 | 1012.0 |
| 20260505052004 | 53 | 4 | 2.0 | 6.0 | 0.07 | 0.10 | 0.10 | 87 | 1012.1 |
| 20260505051912 | 53 | 2 | 2.0 | 6.0 | 0.07 | 0.10 | 0.10 | 86 | 1012.0 |
| 20260505051805 | 53 | 358 | 2.0 | 6.0 | 0.08 | 0.10 | 0.10 | 86 | 1012.0 |
| 20260505051704 | 53 | 356 | 3.0 | 6.0 | 0.07 | 0.09 | 0.09 | 86 | 1012.1 |
| 20260505051604 | 53 | 355 | 3.0 | 7.0 | 0.07 | 0.09 | 0.09 | 86 | 1012.1 |
| 20260505051503 | 53 | 356 | 3.0 | 7.0 | 0.07 | 0.09 | 0.09 | 86 | 1012.1 |
| 20260505051404 | 53 | 355 | 4.0 | 7.0 | 0.07 | 0.09 | 0.09 | 86 | 1012.0 |
| 20260505051304 | 53 | 355 | 4.0 | 7.0 | 0.07 | 0.09 | 0.09 | 86 | 1012.1 |
| 20260505051004 | 53 | 354 | 4.0 | 7.0 | 0.06 | 0.09 | 0.09 | 86 | 1012.1 |
| 20260505050912 | 53 | 354 | 4.0 | 7.0 | 0.06 | 0.09 | 0.09 | 86 | 1012.0 |
| 20260505050803 | 53 | 355 | 3.0 | 7.0 | 0.06 | 0.08 | 0.08 | 85 | 1012.1 |
| 20260505050604 | 53 | 355 | 3.0 | 6.0 | 0.06 | 0.08 | 0.08 | 85 | 1012.0 |
| 20260505050504 | 53 | 354 | 2.0 | 6.0 | 0.06 | 0.08 | 0.08 | 85 | 1012.0 |
| 20260505050404 | 54 | 353 | 2.0 | 5.0 | 0.06 | 0.08 | 0.08 | 85 | 1012.0 |
| 20260505050103 | 54 | 357 | 1.0 | 4.0 | 0.05 | 0.07 | 0.07 | 85 | 1011.9 |
| 20260505041703 | 54 | 351 | 3.0 | 5.0 | 0.02 | 0.02 | 0.02 | 81 | 1011.7 |
| 20260505041404 | 54 | 353 | 3.0 | 5.0 | 0.02 | 0.02 | 0.02 | 80 | 1011.6 |
| 20260505041304 | 54 | 354 | 3.0 | 5.0 | 0.02 | 0.02 | 0.02 | 81 | 1011.7 |
| 20260505041211 | 54 | 354 | 3.0 | 5.0 | 0.02 | 0.02 | 0.02 | 80 | 1011.6 |
| 20260505041004 | 54 | 354 | 3.0 | 5.0 | 0.02 | 0.02 | 0.02 | 80 | 1011.5 |
| 20260505040903 | 55 | 353 | 3.0 | 5.0 | 0.02 | 0.02 | 0.02 | 80 | 1011.5 |
| 20260505040704 | 55 | 358 | 4.0 | 6.0 | 0.02 | 0.02 | 0.02 | 80 | 1011.5 |
| 20260505040504 | 55 | 357 | 4.0 | 6.0 | 0.02 | 0.02 | 0.02 | 80 | 1011.4 |
| 20260505040403 | 55 | 357 | 4.0 | 6.0 | 0.02 | 0.02 | 0.02 | 80 | 1011.5 |
| 20260505040304 | 55 | 358 | 4.0 | 6.0 | 0.02 | 0.02 | 0.02 | 80 | 1011.6 |
| 20260505040212 | 55 | 357 | 4.0 | 7.0 | 0.02 | 0.02 | 0.02 | 80 | 1011.5 |
| 20260505040104 | 55 | 359 | 4.0 | 7.0 | 0.02 | 0.02 | 0.02 | 79 | 1011.5 |
| 20260505040005 | 55 | 358 | 4.0 | 7.0 | 0.02 | 0.02 | 0.02 | 79 | 1011.5 |
| 20260505035903 | 55 | 357 | 3.0 | 7.0 | 0.02 | 0.02 | 0.02 | 79 | 1011.5 |
| 20260505035604 | 55 | 354 | 3.0 | 7.0 | 0.02 | 0.02 | 0.02 | 78 | 1011.4 |
| 20260505035504 | 55 | 352 | 3.0 | 7.0 | 0.02 | 0.02 | 0.02 | 78 | 1011.4 |
| 20260505035404 | 55 | 349 | 3.0 | 7.0 | 0.02 | 0.02 | 0.02 | 78 | 1011.3 |
| 20260505035304 | 55 | 348 | 3.0 | 8.0 | 0.02 | 0.02 | 0.02 | 78 | 1011.4 |
| 20260505035104 | 56 | 348 | 3.0 | 8.0 | 0.02 | 0.02 | 0.02 | 78 | 1011.4 |
| 20260505035004 | 55 | 349 | 3.0 | 8.0 | 0.02 | 0.02 | 0.02 | 78 | 1011.3 |
| 20260505034903 | 55 | 350 | 3.0 | 8.0 | 0.02 | 0.02 | 0.02 | 77 | 1011.3 |
| 20260505034803 | 55 | 352 | 3.0 | 8.0 | 0.02 | 0.02 | 0.02 | 77 | 1011.3 |
| 20260505034604 | 55 | 354 | 3.0 | 8.0 | 0.02 | 0.02 | 0.02 | 77 | 1011.2 |
| 20260505034503 | 56 | 354 | 3.0 | 8.0 | 0.02 | 0.02 | 0.02 | 76 | 1011.3 |
| 20260505034404 | 56 | 356 | 3.0 | 8.0 | 0.02 | 0.02 | 0.02 | 75 | 1011.2 |
| 20260505034303 | 56 | 357 | 3.0 | 5.0 | 0.02 | 0.02 | 0.02 | 75 | 1011.2 |
| 20260505034211 | 56 | 356 | 3.0 | 5.0 | 0.02 | 0.02 | 0.02 | 75 | 1011.2 |
| 20260505034104 | 56 | 355 | 3.0 | 8.0 | 0.02 | 0.02 | 0.02 | 75 | 1011.2 |
| 20260505033904 | 56 | 353 | 3.0 | 8.0 | 0.01 | 0.01 | 0.01 | 75 | 1011.2 |
| 20260505033803 | 56 | 353 | 3.0 | 8.0 | 0.01 | 0.01 | 0.01 | 76 | 1011.2 |
| 20260505033603 | 56 | 352 | 4.0 | 8.0 | 0.01 | 0.01 | 0.01 | 76 | 1011.2 |
| 20260505033512 | 56 | 353 | 4.0 | 8.0 | 0.01 | 0.01 | 0.01 | 75 | 1011.2 |
| 20260505033404 | 56 | 353 | 4.0 | 8.0 | 0.01 | 0.01 | 0.01 | 75 | 1011.1 |
| 20260505033304 | 56 | 353 | 4.0 | 8.0 | 0.01 | 0.01 | 0.01 | 74 | 1011.1 |
| 20260505033204 | 56 | 356 | 4.0 | 8.0 | 0.01 | 0.01 | 0.01 | 74 | 1011.2 |
| 20260505033104 | 56 | 358 | 4.0 | 6.0 | 0.01 | 0.01 | 0.01 | 74 | 1011.2 |
| 20260505033010 | 56 | 2 | 3.0 | 6.0 | 0.01 | 0.01 | 0.01 | 74 | 1011.1 |
| 20260505032904 | 56 | 3 | 3.0 | 6.0 | 0.01 | 0.01 | 0.01 | 74 | 1011.1 |
| 20260505032803 | 56 | 3 | 2.0 | 6.0 | 0.01 | 0.01 | 0.01 | 74 | 1011.1 |
| 20260505032703 | 56 | 3 | 2.0 | 6.0 | 0.01 | 0.01 | 0.01 | 74 | 1011.1 |
| 20260505032604 | 56 | 358 | 2.0 | 6.0 | 0.01 | 0.01 | 0.01 | 74 | 1011.2 |
| 20260505032504 | 56 | 351 | 2.0 | 6.0 | 0.01 | 0.01 | 0.01 | 74 | 1011.1 |
| 20260505032304 | 56 | 168 | 2.0 | 5.0 | 0.01 | 0.01 | 0.01 | 75 | 1011.1 |
| 20260505032203 | 56 | 182 | 2.0 | 5.0 | 0.01 | 0.01 | 0.01 | 76 | 1011.2 |
| 20260505032104 | 57 | 190 | 2.0 | 5.0 | 0.01 | 0.01 | 0.01 | 77 | 1011.2 |
| 20260505032013 | 57 | 196 | 2.0 | 5.0 | 0.01 | 0.01 | 0.01 | 77 | 1011.1 |
| 20260505031704 | 57 | 204 | 2.0 | 5.0 | 0.00 | 0.00 | 0.00 | 77 | 1011.1 |
| 20260505031604 | 57 | 209 | 2.0 | 5.0 | 0.00 | 0.00 | 0.00 | 76 | 1011.2 |
| 20260505031503 | 57 | 219 | 2.0 | 5.0 | 0.00 | 0.00 | 0.00 | 75 | 1011.1 |
| 20260505031404 | 57 | 228 | 2.0 | 5.0 | 0.00 | 0.00 | 0.00 | 76 | 1011.1 |
| 20260505031310 | 57 | 237 | 2.0 | 4.0 | 0.00 | 0.00 | 0.00 | 76 | 1011.2 |
| 20260505031203 | 57 | 237 | 2.0 | 5.0 | 0.00 | 0.00 | 0.00 | 76 | 1011.2 |
| 20260505031004 | 57 | 232 | 3.0 | 5.0 | 0.00 | 0.00 | 0.00 | 77 | 1011.2 |
| 20260505030904 | 57 | 230 | 3.0 | 5.0 | 0.00 | 0.00 | 0.00 | 77 | 1011.3 |
| 20260505030810 | 57 | 229 | 3.0 | 5.0 | 0.00 | 0.00 | 0.00 | 77 | 1011.2 |
| 20260505030704 | 57 | 231 | 3.0 | 5.0 | 0.00 | 0.00 | 0.00 | 77 | 1011.2 |
| 20260505030604 | 57 | 230 | 3.0 | 5.0 | 0.00 | 0.00 | 0.00 | 76 | 1011.3 |
| 20260505030504 | 57 | 232 | 3.0 | 5.0 | 0.00 | 0.00 | 0.00 | 76 | 1011.3 |
| 20260505030203 | 58 | 250 | 3.0 | 5.0 | 0.00 | 0.00 | 0.00 | 75 | 1011.2 |
| 20260505030103 | 58 | 260 | 2.0 | 5.0 | 0.00 | 0.00 | 0.00 | 75 | 1011.2 |
| 20260505030004 | 58 | 273 | 2.0 | 5.0 | 0.00 | 0.00 | 0.00 | 75 | 1011.2 |
| 20260505025903 | 58 | 289 | 2.0 | 4.0 | 0.00 | 0.00 | 0.00 | 75 | 1011.1 |
| 20260505025804 | 58 | 294 | 2.0 | 4.0 | 0.00 | 0.00 | 0.00 | 75 | 1011.1 |
| 20260505025703 | 58 | 295 | 2.0 | 4.0 | 0.00 | 0.00 | 0.00 | 75 | 1011.1 |
| 20260505025403 | 58 | 309 | 2.0 | 4.0 | 0.00 | 0.00 | 0.00 | 75 | 1011.1 |
| 20260505025305 | 58 | 312 | 2.0 | 4.0 | 0.00 | 0.00 | 0.00 | 74 | 1011.1 |
| 20260505025204 | 58 | 314 | 2.0 | 4.0 | 0.00 | 0.00 | 0.00 | 74 | 1011.1 |
| 20260505025104 | 58 | 321 | 2.0 | 4.0 | 0.00 | 0.00 | 0.00 | 74 | 1011.1 |
| 20260505025004 | 58 | 326 | 2.0 | 3.0 | 0.00 | 0.00 | 0.00 | 73 | 1011.2 |
| 20260505024909 | 58 | 326 | 2.0 | 3.0 | 0.00 | 0.00 | 0.00 | 73 | 1011.3 |
| 20260505024803 | 58 | 331 | 1.0 | 3.0 | 0.00 | 0.00 | 0.00 | 72 | 1011.2 |
| 20260505024503 | 59 | 338 | 1.0 | 4.0 | 0.00 | 0.00 | 0.00 | 70 | 1011.1 |
| 20260505024403 | 59 | 335 | 1.0 | 4.0 | 0.00 | 0.00 | 0.00 | 70 | 1011.2 |
| 20260505024303 | 59 | 336 | 1.0 | 4.0 | 0.00 | 0.00 | 0.00 | 70 | 1011.2 |
| 20260505024203 | 59 | 336 | 1.0 | 4.0 | 0.00 | 0.00 | 0.00 | 70 | 1011.2 |
| 20260505024103 | 59 | 338 | 1.0 | 4.0 | 0.00 | 0.00 | 0.00 | 70 | 1011.2 |
| 20260505024003 | 58 | 347 | 2.0 | 5.0 | 0.00 | 0.00 | 0.00 | 70 | 1011.2 |
| 20260505023913 | 58 | 347 | 2.0 | 5.0 | 0.00 | 0.00 | 0.00 | 70 | 1011.2 |
| 20260505023703 | 58 | 345 | 1.0 | 5.0 | 0.00 | 0.00 | 0.00 | 69 | 1011.2 |
| 20260505023603 | 58 | 353 | 1.0 | 5.0 | 0.00 | 0.00 | 0.00 | 70 | 1011.1 |
| 20260505023504 | 58 | 7 | 1.0 | 5.0 | 0.00 | 0.00 | 0.00 | 70 | 1011.3 |
| 20260505023404 | 58 | 45 | 1.0 | 5.0 | 0.00 | 0.00 | 0.00 | 70 | 1011.2 |
| 20260505023304 | 58 | 86 | 1.0 | 5.0 | 0.00 | 0.00 | 0.00 | 70 | 1011.2 |
| 20260505023211 | 58 | 115 | 1.0 | 5.0 | 0.00 | 0.00 | 0.00 | 69 | 1011.3 |
| 20260505023103 | 58 | 128 | 1.0 | 5.0 | 0.00 | 0.00 | 0.00 | 70 | 1011.1 |
| 20260505023004 | 59 | 157 | 0.0 | 2.0 | 0.00 | 0.00 | 0.00 | 70 | 1011.3 |
| 20260505022903 | 59 | 159 | 0.0 | 2.0 | 0.00 | 0.00 | 0.00 | 70 | 1011.3 |
| 20260505022803 | 59 | 160 | 0.0 | 2.0 | 0.00 | 0.00 | 0.00 | 70 | 1011.2 |
| 20260505022704 | 59 | 160 | 1.0 | 3.0 | 0.00 | 0.00 | 0.00 | 69 | 1011.2 |
| 20260505022603 | 59 | 159 | 1.0 | 3.0 | 0.00 | 0.00 | 0.00 | 68 | 1011.2 |
| 20260505022404 | 59 | 153 | 1.0 | 3.0 | 0.00 | 0.00 | 0.00 | 69 | 1011.2 |
| 20260505022304 | 59 | 152 | 1.0 | 3.0 | 0.00 | 0.00 | 0.00 | 68 | 1011.2 |
| 20260505022204 | 59 | 150 | 1.0 | 3.0 | 0.00 | 0.00 | 0.00 | 68 | 1011.2 |
| 20260505022104 | 59 | 150 | 1.0 | 3.0 | 0.00 | 0.00 | 0.00 | 67 | 1011.2 |
| 20260505021903 | 59 | 149 | 1.0 | 3.0 | 0.00 | 0.00 | 0.00 | 67 | 1011.2 |
| 20260505021808 | 59 | 147 | 0.0 | 3.0 | 0.00 | 0.00 | 0.00 | 67 | 1011.2 |
| 20260505021704 | 59 | 136 | 0.0 | 3.0 | 0.00 | 0.00 | 0.00 | 67 | 1011.3 |
| 20260505021604 | 59 | 70 | 0.0 | 1.0 | 0.00 | 0.00 | 0.00 | 67 | 1011.3 |
| 20260505021504 | 59 | 9 | 0.0 | 1.0 | 0.00 | 0.00 | 0.00 | 67 | 1011.3 |
| 20260505021411 | 59 | 3 | 0.0 | 1.0 | 0.00 | 0.00 | 0.00 | 67 | 1011.2 |
| 20260505021304 | 59 | 2 | 0.0 | 1.0 | 0.00 | 0.00 | 0.00 | 67 | 1011.2 |
| 20260505021203 | 59 | 2 | 0.0 | 1.0 | 0.00 | 0.00 | 0.00 | 67 | 1011.2 |
| 20260505021108 | 59 | 3 | 0.0 | 1.0 | 0.00 | 0.00 | 0.00 | 66 | 1011.2 |
| 20260505020803 | 59 | 352 | 1.0 | 3.0 | 0.00 | 0.00 | 0.00 | 65 | 1011.2 |
| 20260505020704 | 59 | 349 | 1.0 | 3.0 | 0.00 | 0.00 | 0.00 | 65 | 1011.2 |
| 20260505020603 | 59 | 354 | 1.0 | 3.0 | 0.00 | 0.00 | 0.00 | 65 | 1011.3 |
| 20260505020504 | 59 | 346 | 1.0 | 4.0 | 0.00 | 0.00 | 0.00 | 65 | 1011.3 |
| 20260505020203 | 59 | 325 | 2.0 | 4.0 | 0.00 | 0.00 | 0.00 | 65 | 1011.4 |
| 20260505020103 | 59 | 320 | 2.0 | 4.0 | 0.00 | 0.00 | 0.00 | 65 | 1011.3 |
| 20260505020004 | 59 | 308 | 2.0 | 4.0 | 0.00 | 0.00 | 0.00 | 65 | 1011.4 |
| 20260505015904 | 59 | 300 | 2.0 | 4.0 | 0.00 | 0.00 | 0.00 | 64 | 1011.4 |
| 20260505015804 | 59 | 296 | 1.0 | 4.0 | 0.00 | 0.00 | 0.00 | 64 | 1011.5 |
| 20260505015707 | 59 | 286 | 1.0 | 4.0 | 0.00 | 0.00 | 0.00 | 65 | 1011.5 |
| 20260505015503 | 59 | 264 | 1.0 | 3.0 | 0.00 | 0.00 | 0.00 | 66 | 1011.6 |
| 20260505015304 | 59 | 270 | 1.0 | 2.0 | 0.00 | 0.00 | 0.00 | 67 | 1011.6 |
| 20260505015204 | 59 | 271 | 1.0 | 2.0 | 0.00 | 0.00 | 0.00 | 68 | 1011.6 |
| 20260505015103 | 59 | 277 | 1.0 | 2.0 | 0.00 | 0.00 | 0.00 | 68 | 1011.5 |
| 20260505015007 | 59 | 280 | 1.0 | 2.0 | 0.00 | 0.00 | 0.00 | 68 | 1011.5 |
| 20260505014903 | 59 | 286 | 1.0 | 2.0 | 0.00 | 0.00 | 0.00 | 68 | 1011.5 |
| 20260505014804 | 59 | 298 | 1.0 | 2.0 | 0.00 | 0.00 | 0.00 | 68 | 1011.6 |
| 20260505014704 | 59 | 308 | 1.0 | 2.0 | 0.00 | 0.00 | 0.00 | 68 | 1011.6 |
| 20260505014603 | 59 | 316 | 1.0 | 2.0 | 0.00 | 0.00 | 0.00 | 67 | 1011.7 |
| 20260505014504 | 59 | 327 | 1.0 | 2.0 | 0.00 | 0.00 | 0.00 | 68 | 1011.6 |
| 20260505014403 | 59 | 337 | 1.0 | 2.0 | 0.00 | 0.00 | 0.00 | 68 | 1011.6 |
| 20260505014204 | 59 | 349 | 1.0 | 3.0 | 0.00 | 0.00 | 0.00 | 67 | 1011.6 |
| 20260505014103 | 59 | 350 | 1.0 | 3.0 | 0.00 | 0.00 | 0.00 | 67 | 1011.6 |
| 20260505014003 | 59 | 349 | 1.0 | 3.0 | 0.00 | 0.00 | 0.00 | 67 | 1011.6 |
| 20260505013803 | 59 | 344 | 1.0 | 3.0 | 0.00 | 0.00 | 0.00 | 66 | 1011.7 |
| 20260505013704 | 59 | 343 | 1.0 | 3.0 | 0.00 | 0.00 | 0.00 | 66 | 1011.7 |
| 20260505013606 | 59 | 340 | 1.0 | 3.0 | 0.00 | 0.00 | 0.00 | 66 | 1011.8 |
| 20260505013504 | 59 | 338 | 1.0 | 3.0 | 0.00 | 0.00 | 0.00 | 65 | 1011.6 |
| 20260505013404 | 60 | 335 | 1.0 | 3.0 | 0.00 | 0.00 | 0.00 | 66 | 1011.6 |
| 20260505013304 | 60 | 331 | 1.0 | 3.0 | 0.00 | 0.00 | 0.00 | 66 | 1011.6 |
| 20260505013203 | 60 | 325 | 1.0 | 3.0 | 0.00 | 0.00 | 0.00 | 66 | 1011.6 |
| 20260505013105 | 60 | 321 | 1.0 | 3.0 | 0.00 | 0.00 | 0.00 | 65 | 1011.6 |
| 20260505013003 | 60 | 317 | 1.0 | 3.0 | 0.00 | 0.00 | 0.00 | 65 | 1011.7 |
| 20260505012907 | 60 | 310 | 0.0 | 2.0 | 0.00 | 0.00 | 0.00 | 64 | 1011.7 |
| 20260505012703 | 60 | 309 | 0.0 | 1.0 | 0.00 | 0.00 | 0.00 | 64 | 1011.7 |
| 20260505012603 | 60 | 309 | 0.0 | 1.0 | 0.00 | 0.00 | 0.00 | 64 | 1011.7 |
| 20260505012504 | 60 | 309 | 0.0 | 1.0 | 0.00 | 0.00 | 0.00 | 64 | 1011.7 |
| 20260505012403 | 60 | 309 | 0.0 | 1.0 | 0.00 | 0.00 | 0.00 | 65 | 1011.8 |
| 20260505012304 | 60 | 309 | 0.0 | 1.0 | 0.00 | 0.00 | 0.00 | 65 | 1011.7 |
| 20260505012104 | 60 | 309 | 0.0 | 1.0 | 0.00 | 0.00 | 0.00 | 65 | 1011.8 |
| 20260505012004 | 60 | 309 | 0.0 | 1.0 | 0.00 | 0.00 | 0.00 | 65 | 1011.8 |
| 20260505011903 | 60 | 309 | 0.0 | 2.0 | 0.00 | 0.00 | 0.00 | 65 | 1011.9 |
| 20260505011603 | 60 | 309 | 1.0 | 2.0 | 0.00 | 0.00 | 0.00 | 65 | 1011.9 |
| 20260505011507 | 60 | 309 | 1.0 | 2.0 | 0.00 | 0.00 | 0.00 | 65 | 1011.8 |
| 20260505011404 | 60 | 309 | 1.0 | 2.0 | 0.00 | 0.00 | 0.00 | 66 | 1011.8 |
| 20260505011304 | 60 | 309 | 1.0 | 2.0 | 0.00 | 0.00 | 0.00 | 66 | 1011.8 |
| 20260505011203 | 60 | 309 | 1.0 | 2.0 | 0.00 | 0.00 | 0.00 | 66 | 1011.9 |
| 20260505011103 | 60 | 309 | 1.0 | 2.0 | 0.00 | 0.00 | 0.00 | 66 | 1012.0 |
| 20260505011004 | 60 | 309 | 1.0 | 2.0 | 0.00 | 0.00 | 0.00 | 66 | 1011.9 |
| 20260505010604 | 60 | 304 | 1.0 | 3.0 | 0.00 | 0.00 | 0.00 | 66 | 1012.0 |
| 20260505010504 | 60 | 302 | 1.0 | 3.0 | 0.00 | 0.00 | 0.00 | 67 | 1012.0 |
| 20260505010403 | 60 | 300 | 1.0 | 3.0 | 0.00 | 0.00 | 0.00 | 67 | 1012.1 |
| 20260505010004 | 60 | 284 | 1.0 | 3.0 | 0.00 | 0.00 | 0.00 | 67 | 1012.1 |
| 20260505005904 | 60 | 277 | 1.0 | 3.0 | 0.00 | 0.00 | 0.00 | 67 | 1012.2 |
| 20260505005804 | 60 | 270 | 1.0 | 2.0 | 0.00 | 0.00 | 0.00 | 67 | 1012.2 |
| 20260505005604 | 60 | 255 | 0.0 | 2.0 | 0.00 | 0.00 | 0.00 | 67 | 1012.2 |
| 20260505005504 | 60 | 248 | 1.0 | 2.0 | 0.00 | 0.00 | 0.00 | 67 | 1012.2 |
| 20260505005406 | 60 | 242 | 1.0 | 2.0 | 0.00 | 0.00 | 0.00 | 67 | 1012.2 |
| 20260505005304 | 60 | 234 | 1.0 | 3.0 | 0.00 | 0.00 | 0.00 | 67 | 1012.3 |
| 20260505005204 | 60 | 236 | 1.0 | 3.0 | 0.00 | 0.00 | 0.00 | 67 | 1012.4 |
| 20260505005104 | 60 | 236 | 1.0 | 3.0 | 0.00 | 0.00 | 0.00 | 67 | 1012.3 |
| 20260505005004 | 59 | 236 | 1.0 | 3.0 | 0.00 | 0.00 | 0.00 | 67 | 1012.4 |
| 20260505004803 | 59 | 235 | 1.0 | 3.0 | 0.00 | 0.00 | 0.00 | 67 | 1012.4 |
| 20260505004706 | 59 | 235 | 1.0 | 3.0 | 0.00 | 0.00 | 0.00 | 67 | 1012.5 |
| 20260505004604 | 59 | 235 | 1.0 | 3.0 | 0.00 | 0.00 | 0.00 | 67 | 1012.4 |
| 20260505004503 | 60 | 234 | 1.0 | 3.0 | 0.00 | 0.00 | 0.00 | 67 | 1012.5 |
| 20260505004403 | 60 | 235 | 1.0 | 3.0 | 0.00 | 0.00 | 0.00 | 67 | 1012.5 |
| 20260505004204 | 60 | 235 | 1.0 | 3.0 | 0.00 | 0.00 | 0.00 | 67 | 1012.5 |
| 20260505004103 | 60 | 235 | 1.0 | 3.0 | 0.00 | 0.00 | 0.00 | 67 | 1012.5 |
| 20260505004006 | 60 | 235 | 1.0 | 3.0 | 0.00 | 0.00 | 0.00 | 67 | 1012.6 |
| 20260505003903 | 60 | 235 | 1.0 | 2.0 | 0.00 | 0.00 | 0.00 | 67 | 1012.5 |
| 20260505003704 | 60 | 235 | 1.0 | 2.0 | 0.00 | 0.00 | 0.00 | 67 | 1012.6 |
| 20260505003603 | 60 | 235 | 1.0 | 2.0 | 0.00 | 0.00 | 0.00 | 67 | 1012.6 |
| 20260505003504 | 60 | 235 | 1.0 | 3.0 | 0.00 | 0.00 | 0.00 | 67 | 1012.6 |
| 20260505003403 | 60 | 235 | 1.0 | 3.0 | 0.00 | 0.00 | 0.00 | 67 | 1012.7 |
| 20260505003204 | 60 | 235 | 1.0 | 3.0 | 0.00 | 0.00 | 0.00 | 67 | 1012.6 |
| 20260505003104 | 60 | 237 | 1.0 | 3.0 | 0.00 | 0.00 | 0.00 | 67 | 1012.6 |
| 20260505003005 | 60 | 238 | 1.0 | 3.0 | 0.00 | 0.00 | 0.00 | 66 | 1012.7 |
| 20260505002905 | 60 | 239 | 1.0 | 3.0 | 0.00 | 0.00 | 0.00 | 66 | 1012.7 |
| 20260505002804 | 60 | 242 | 1.0 | 3.0 | 0.00 | 0.00 | 0.00 | 66 | 1012.7 |
| 20260505002703 | 60 | 244 | 1.0 | 3.0 | 0.00 | 0.00 | 0.00 | 66 | 1012.7 |
| 20260505002504 | 60 | 254 | 1.0 | 3.0 | 0.00 | 0.00 | 0.00 | 65 | 1012.8 |
| 20260505002404 | 60 | 263 | 1.0 | 3.0 | 0.00 | 0.00 | 0.00 | 64 | 1012.7 |
| 20260505002304 | 60 | 275 | 1.0 | 2.0 | 0.00 | 0.00 | 0.00 | 65 | 1012.8 |
| 20260505002204 | 60 | 290 | 1.0 | 2.0 | 0.00 | 0.00 | 0.00 | 65 | 1012.8 |
| 20260505002004 | 60 | 292 | 0.0 | 2.0 | 0.00 | 0.00 | 0.00 | 65 | 1012.9 |
| 20260505001803 | 60 | 292 | 0.0 | 2.0 | 0.00 | 0.00 | 0.00 | 65 | 1012.8 |
| 20260505001703 | 60 | 292 | 0.0 | 2.0 | 0.00 | 0.00 | 0.00 | 65 | 1012.9 |
| 20260505001504 | 60 | 292 | 0.0 | 2.0 | 0.00 | 0.00 | 0.00 | 65 | 1012.9 |
| 20260505001404 | 60 | 291 | 0.0 | 2.0 | 0.00 | 0.00 | 0.00 | 65 | 1012.8 |
| 20260505001303 | 60 | 284 | 0.0 | 2.0 | 0.00 | 0.00 | 0.00 | 65 | 1012.8 |
| 20260505001209 | 60 | 271 | 0.0 | 2.0 | 0.00 | 0.00 | 0.00 | 65 | 1012.8 |
| 20260505001104 | 60 | 266 | 0.0 | 2.0 | 0.00 | 0.00 | 0.00 | 65 | 1012.8 |
| 20260505001004 | 60 | 260 | 0.0 | 2.0 | 0.00 | 0.00 | 0.00 | 65 | 1012.8 |
| 20260505000904 | 60 | 244 | 0.0 | 2.0 | 0.00 | 0.00 | 0.00 | 65 | 1012.6 |
| 20260505000803 | 60 | 233 | 0.0 | 4.0 | 0.00 | 0.00 | 0.00 | 65 | 1012.8 |
| 20260505000703 | 60 | 219 | 1.0 | 4.0 | 0.00 | 0.00 | 0.00 | 65 | 1012.8 |
| 20260505000604 | 60 | 211 | 1.0 | 5.0 | 0.00 | 0.00 | 0.00 | 65 | 1012.8 |
| 20260505000304 | 60 | 206 | 2.0 | 5.0 | 0.00 | 0.00 | 0.00 | 66 | 1012.9 |
| 20260505000004 | 60 | 210 | 3.0 | 5.0 | 0.00 | 0.00 | 0.00 | 66 | 1013.0 |
| 20260504235903 | 59 | 210 | 3.0 | 5.0 | 0.00 | 0.00 | 0.00 | 66 | 1013.0 |
| 20260504235810 | 59 | 212 | 3.0 | 5.0 | 0.00 | 0.00 | 0.00 | 66 | 1013.0 |
| 20260504235703 | 59 | 213 | 3.0 | 5.0 | 0.00 | 0.00 | 0.00 | 66 | 1013.0 |
| 20260504235604 | 60 | 216 | 3.0 | 5.0 | 0.00 | 0.00 | 0.00 | 66 | 1013.0 |
| 20260504235503 | 59 | 220 | 3.0 | 5.0 | 0.00 | 0.00 | 0.00 | 66 | 1013.0 |
| 20260504235403 | 60 | 224 | 2.0 | 5.0 | 0.00 | 0.00 | 0.00 | 66 | 1013.0 |
| 20260504235304 | 60 | 228 | 2.0 | 5.0 | 0.00 | 0.00 | 0.00 | 66 | 1013.1 |
| 20260504235203 | 60 | 232 | 2.0 | 5.0 | 0.00 | 0.00 | 0.00 | 66 | 1013.0 |
| 20260504235107 | 60 | 240 | 2.0 | 5.0 | 0.00 | 0.00 | 0.00 | 65 | 1013.1 |
| 20260504235003 | 60 | 248 | 1.0 | 5.0 | 0.00 | 0.00 | 0.00 | 65 | 1013.2 |
| 20260504234903 | 60 | 259 | 1.0 | 3.0 | 0.00 | 0.00 | 0.00 | 65 | 1013.2 |
| 20260504234803 | 60 | 270 | 1.0 | 3.0 | 0.00 | 0.00 | 0.00 | 64 | 1013.0 |
| 20260504234704 | 60 | 285 | 1.0 | 3.0 | 0.00 | 0.00 | 0.00 | 64 | 1013.1 |
| 20260504234604 | 61 | 297 | 1.0 | 2.0 | 0.00 | 0.00 | 0.00 | 63 | 1013.0 |
| 20260504234503 | 61 | 297 | 1.0 | 2.0 | 0.00 | 0.00 | 0.00 | 63 | 1013.1 |
| 20260504234407 | 61 | 298 | 0.0 | 2.0 | 0.00 | 0.00 | 0.00 | 63 | 1013.1 |
| 20260504234304 | 61 | 300 | 0.0 | 2.0 | 0.00 | 0.00 | 0.00 | 63 | 1013.1 |
| 20260504234204 | 61 | 301 | 0.0 | 2.0 | 0.00 | 0.00 | 0.00 | 64 | 1013.1 |
| 20260504234104 | 61 | 309 | 0.0 | 2.0 | 0.00 | 0.00 | 0.00 | 64 | 1013.2 |
| 20260504234004 | 61 | 313 | 0.0 | 2.0 | 0.00 | 0.00 | 0.00 | 63 | 1013.1 |
| 20260504233803 | 61 | 302 | 0.0 | 2.0 | 0.00 | 0.00 | 0.00 | 63 | 1013.1 |
| 20260504233603 | 60 | 257 | 1.0 | 3.0 | 0.00 | 0.00 | 0.00 | 63 | 1013.1 |
| 20260504233505 | 60 | 250 | 1.0 | 3.0 | 0.00 | 0.00 | 0.00 | 63 | 1013.2 |
| 20260504233416 | 60 | 247 | 1.0 | 3.0 | 0.00 | 0.00 | 0.00 | 63 | 1013.2 |
| 20260504233303 | 60 | 243 | 1.0 | 3.0 | 0.00 | 0.00 | 0.00 | 63 | 1013.2 |
| 20260504233204 | 60 | 241 | 1.0 | 3.0 | 0.00 | 0.00 | 0.00 | 64 | 1013.2 |
| 20260504233103 | 60 | 233 | 1.0 | 3.0 | 0.00 | 0.00 | 0.00 | 63 | 1013.3 |
| 20260504233004 | 60 | 228 | 1.0 | 4.0 | 0.00 | 0.00 | 0.00 | 64 | 1013.3 |
| 20260504232903 | 60 | 227 | 1.0 | 4.0 | 0.00 | 0.00 | 0.00 | 64 | 1013.3 |
| 20260504232804 | 60 | 224 | 2.0 | 4.0 | 0.00 | 0.00 | 0.00 | 64 | 1013.3 |
| 20260504232603 | 60 | 221 | 2.0 | 5.0 | 0.00 | 0.00 | 0.00 | 65 | 1013.3 |
| 20260504232404 | 60 | 221 | 3.0 | 5.0 | 0.00 | 0.00 | 0.00 | 66 | 1013.5 |
| 20260504232304 | 60 | 221 | 3.0 | 5.0 | 0.00 | 0.00 | 0.00 | 66 | 1013.5 |
| 20260504232205 | 60 | 221 | 3.0 | 5.0 | 0.00 | 0.00 | 0.00 | 66 | 1013.5 |
| 20260504232104 | 60 | 221 | 3.0 | 5.0 | 0.00 | 0.00 | 0.00 | 66 | 1013.5 |
| 20260504232008 | 60 | 221 | 3.0 | 5.0 | 0.00 | 0.00 | 0.00 | 66 | 1013.5 |
| 20260504231904 | 60 | 222 | 4.0 | 5.0 | 0.00 | 0.00 | 0.00 | 66 | 1013.5 |
| 20260504231803 | 60 | 222 | 3.0 | 5.0 | 0.00 | 0.00 | 0.00 | 66 | 1013.5 |
| 20260504231703 | 60 | 222 | 3.0 | 5.0 | 0.00 | 0.00 | 0.00 | 65 | 1013.5 |
| 20260504231604 | 60 | 222 | 3.0 | 5.0 | 0.00 | 0.00 | 0.00 | 65 | 1013.6 |
| 20260504231503 | 60 | 222 | 3.0 | 5.0 | 0.00 | 0.00 | 0.00 | 65 | 1013.6 |
| 20260504231308 | 60 | 221 | 2.0 | 5.0 | 0.00 | 0.00 | 0.00 | 65 | 1013.6 |
| 20260504231203 | 60 | 220 | 2.0 | 5.0 | 0.00 | 0.00 | 0.00 | 65 | 1013.6 |
| 20260504231103 | 60 | 218 | 2.0 | 4.0 | 0.00 | 0.00 | 0.00 | 65 | 1013.7 |
| 20260504231004 | 60 | 217 | 2.0 | 4.0 | 0.00 | 0.00 | 0.00 | 65 | 1013.6 |
| 20260504230903 | 60 | 215 | 2.0 | 4.0 | 0.00 | 0.00 | 0.00 | 65 | 1013.6 |
| 20260504230805 | 60 | 214 | 2.0 | 4.0 | 0.00 | 0.00 | 0.00 | 65 | 1013.6 |
| 20260504230703 | 60 | 214 | 2.0 | 4.0 | 0.00 | 0.00 | 0.00 | 64 | 1013.7 |
| 20260504230608 | 60 | 214 | 2.0 | 4.0 | 0.00 | 0.00 | 0.00 | 64 | 1013.7 |
| 20260504230503 | 60 | 214 | 2.0 | 4.0 | 0.00 | 0.00 | 0.00 | 65 | 1013.7 |
| 20260504230403 | 60 | 215 | 3.0 | 4.0 | 0.00 | 0.00 | 0.00 | 64 | 1013.7 |
| 20260504230203 | 60 | 217 | 3.0 | 4.0 | 0.00 | 0.00 | 0.00 | 65 | 1013.7 |
| 20260504230104 | 60 | 218 | 3.0 | 4.0 | 0.00 | 0.00 | 0.00 | 65 | 1013.7 |
| 20260504225909 | 60 | 221 | 2.0 | 4.0 | 0.00 | 0.00 | 0.00 | 65 | 1013.7 |
| 20260504225804 | 60 | 222 | 2.0 | 4.0 | 0.00 | 0.00 | 0.00 | 66 | 1013.8 |
| 20260504225703 | 60 | 222 | 2.0 | 3.0 | 0.00 | 0.00 | 0.00 | 66 | 1013.6 |
| 20260504225604 | 60 | 223 | 2.0 | 3.0 | 0.00 | 0.00 | 0.00 | 65 | 1013.6 |
| 20260504225403 | 60 | 227 | 2.0 | 3.0 | 0.00 | 0.00 | 0.00 | 65 | 1013.6 |
| 20260504225304 | 60 | 230 | 2.0 | 3.0 | 0.00 | 0.00 | 0.00 | 65 | 1013.7 |
| 20260504225103 | 60 | 236 | 1.0 | 3.0 | 0.00 | 0.00 | 0.00 | 65 | 1013.6 |
| 20260504225004 | 60 | 240 | 1.0 | 3.0 | 0.00 | 0.00 | 0.00 | 65 | 1013.6 |
| 20260504224904 | 60 | 243 | 1.0 | 3.0 | 0.00 | 0.00 | 0.00 | 64 | 1013.6 |
| 20260504224603 | 61 | 272 | 1.0 | 2.0 | 0.00 | 0.00 | 0.00 | 64 | 1013.6 |
| 20260504224506 | 61 | 279 | 1.0 | 2.0 | 0.00 | 0.00 | 0.00 | 64 | 1013.7 |
| 20260504224404 | 61 | 292 | 0.0 | 2.0 | 0.00 | 0.00 | 0.00 | 64 | 1013.6 |
| 20260504224304 | 61 | 301 | 0.0 | 2.0 | 0.00 | 0.00 | 0.00 | 64 | 1013.7 |
| 20260504224203 | 61 | 307 | 0.0 | 1.0 | 0.00 | 0.00 | 0.00 | 64 | 1013.7 |
| 20260504224103 | 61 | 307 | 0.0 | 1.0 | 0.00 | 0.00 | 0.00 | 64 | 1013.6 |
| 20260504224003 | 61 | 307 | 0.0 | 1.0 | 0.00 | 0.00 | 0.00 | 64 | 1013.6 |
| 20260504223904 | 61 | 307 | 0.0 | 1.0 | 0.00 | 0.00 | 0.00 | 64 | 1013.6 |
| 20260504223806 | 61 | 307 | 0.0 | 1.0 | 0.00 | 0.00 | 0.00 | 64 | 1013.7 |
| 20260504223704 | 61 | 307 | 0.0 | 1.0 | 0.00 | 0.00 | 0.00 | 64 | 1013.7 |
| 20260504223604 | 61 | 307 | 0.0 | 1.0 | 0.00 | 0.00 | 0.00 | 63 | 1013.8 |
| 20260504223503 | 61 | 307 | 0.0 | 1.0 | 0.00 | 0.00 | 0.00 | 63 | 1013.8 |
| 20260504223404 | 62 | 307 | 0.0 | 1.0 | 0.00 | 0.00 | 0.00 | 63 | 1013.9 |
| 20260504223304 | 62 | 307 | 0.0 | 1.0 | 0.00 | 0.00 | 0.00 | 63 | 1013.8 |
| 20260504223203 | 62 | 307 | 0.0 | 1.0 | 0.00 | 0.00 | 0.00 | 63 | 1013.9 |
| 20260504223106 | 62 | 307 | 0.0 | 2.0 | 0.00 | 0.00 | 0.00 | 63 | 1013.7 |
| 20260504223004 | 62 | 307 | 0.0 | 2.0 | 0.00 | 0.00 | 0.00 | 63 | 1013.8 |
| 20260504222904 | 62 | 307 | 1.0 | 2.0 | 0.00 | 0.00 | 0.00 | 63 | 1013.9 |
| 20260504222804 | 62 | 307 | 1.0 | 2.0 | 0.00 | 0.00 | 0.00 | 63 | 1013.9 |
| 20260504222604 | 61 | 307 | 1.0 | 2.0 | 0.00 | 0.00 | 0.00 | 64 | 1013.9 |
| 20260504222504 | 61 | 307 | 1.0 | 2.0 | 0.00 | 0.00 | 0.00 | 64 | 1013.8 |
| 20260504222406 | 61 | 307 | 1.0 | 2.0 | 0.00 | 0.00 | 0.00 | 63 | 1013.9 |
| 20260504222305 | 61 | 307 | 1.0 | 2.0 | 0.00 | 0.00 | 0.00 | 64 | 1014.0 |
| 20260504222204 | 61 | 307 | 0.0 | 2.0 | 0.00 | 0.00 | 0.00 | 63 | 1014.0 |
| 20260504222004 | 62 | 307 | 0.0 | 2.0 | 0.00 | 0.00 | 0.00 | 63 | 1014.0 |
| 20260504221903 | 62 | 307 | 0.0 | 2.0 | 0.00 | 0.00 | 0.00 | 63 | 1013.9 |
| 20260504221804 | 62 | 307 | 0.0 | 2.0 | 0.00 | 0.00 | 0.00 | 63 | 1013.9 |
| 20260504221403 | 61 | 307 | 0.0 | 2.0 | 0.00 | 0.00 | 0.00 | 63 | 1014.0 |
| 20260504221303 | 61 | 307 | 0.0 | 2.0 | 0.00 | 0.00 | 0.00 | 63 | 1014.0 |
| 20260504221204 | 61 | 307 | 0.0 | 2.0 | 0.00 | 0.00 | 0.00 | 63 | 1014.0 |
| 20260504221103 | 61 | 306 | 0.0 | 2.0 | 0.00 | 0.00 | 0.00 | 63 | 1014.0 |
| 20260504221007 | 61 | 304 | 0.0 | 2.0 | 0.00 | 0.00 | 0.00 | 63 | 1014.0 |
| 20260504220904 | 61 | 300 | 1.0 | 3.0 | 0.00 | 0.00 | 0.00 | 63 | 1014.0 |
| 20260504220803 | 61 | 296 | 1.0 | 3.0 | 0.00 | 0.00 | 0.00 | 63 | 1014.0 |
| 20260504220703 | 61 | 295 | 1.0 | 3.0 | 0.00 | 0.00 | 0.00 | 63 | 1014.0 |
| 20260504220604 | 61 | 299 | 1.0 | 3.0 | 0.00 | 0.00 | 0.00 | 63 | 1014.1 |
| 20260504220504 | 61 | 294 | 1.0 | 3.0 | 0.00 | 0.00 | 0.00 | 63 | 1014.0 |
| 20260504220403 | 61 | 293 | 1.0 | 3.0 | 0.00 | 0.00 | 0.00 | 63 | 1014.0 |
| 20260504220204 | 61 | 281 | 1.0 | 3.0 | 0.00 | 0.00 | 0.00 | 63 | 1014.1 |
| 20260504220012 | 62 | 274 | 1.0 | 3.0 | 0.00 | 0.00 | 0.00 | 63 | 1014.2 |
| 20260504215903 | 62 | 270 | 1.0 | 3.0 | 0.00 | 0.00 | 0.00 | 63 | 1014.0 |
| 20260504215803 | 62 | 267 | 1.0 | 3.0 | 0.00 | 0.00 | 0.00 | 63 | 1014.1 |
| 20260504215704 | 62 | 259 | 1.0 | 3.0 | 0.00 | 0.00 | 0.00 | 63 | 1014.1 |
| 20260504215604 | 62 | 244 | 1.0 | 3.0 | 0.00 | 0.00 | 0.00 | 62 | 1014.2 |
| 20260504215503 | 62 | 235 | 0.0 | 3.0 | 0.00 | 0.00 | 0.00 | 62 | 1014.2 |
| 20260504215403 | 62 | 231 | 0.0 | 3.0 | 0.00 | 0.00 | 0.00 | 62 | 1014.2 |
| 20260504215309 | 62 | 228 | 0.0 | 3.0 | 0.00 | 0.00 | 0.00 | 62 | 1014.1 |
| 20260504215203 | 62 | 231 | 0.0 | 3.0 | 0.00 | 0.00 | 0.00 | 62 | 1014.2 |
| 20260504215004 | 62 | 236 | 1.0 | 4.0 | 0.00 | 0.00 | 0.00 | 62 | 1014.1 |
| 20260504214903 | 62 | 233 | 1.0 | 4.0 | 0.00 | 0.00 | 0.00 | 62 | 1014.2 |
| 20260504214803 | 62 | 232 | 1.0 | 4.0 | 0.00 | 0.00 | 0.00 | 63 | 1014.1 |
| 20260504214608 | 62 | 229 | 1.0 | 4.0 | 0.00 | 0.00 | 0.00 | 62 | 1014.2 |
| 20260504214504 | 62 | 226 | 2.0 | 4.0 | 0.00 | 0.00 | 0.00 | 62 | 1014.1 |
| 20260504214403 | 62 | 222 | 2.0 | 5.0 | 0.00 | 0.00 | 0.00 | 62 | 1014.1 |
| 20260504214304 | 62 | 218 | 2.0 | 5.0 | 0.00 | 0.00 | 0.00 | 62 | 1014.1 |
| 20260504214203 | 62 | 215 | 3.0 | 5.0 | 0.00 | 0.00 | 0.00 | 62 | 1014.2 |
| 20260504214104 | 62 | 212 | 3.0 | 6.0 | 0.00 | 0.00 | 0.00 | 61 | 1014.1 |
| 20260504214004 | 62 | 208 | 3.0 | 6.0 | 0.00 | 0.00 | 0.00 | 61 | 1014.2 |
| 20260504213908 | 62 | 206 | 3.0 | 7.0 | 0.00 | 0.00 | 0.00 | 61 | 1014.1 |
| 20260504213803 | 62 | 204 | 4.0 | 7.0 | 0.00 | 0.00 | 0.00 | 61 | 1014.2 |
| 20260504213604 | 62 | 203 | 4.0 | 7.0 | 0.00 | 0.00 | 0.00 | 61 | 1014.2 |
| 20260504213303 | 62 | 201 | 5.0 | 8.0 | 0.00 | 0.00 | 0.00 | 62 | 1014.2 |
| 20260504213103 | 61 | 201 | 5.0 | 8.0 | 0.00 | 0.00 | 0.00 | 63 | 1014.3 |
| 20260504212904 | 61 | 204 | 4.0 | 8.0 | 0.00 | 0.00 | 0.00 | 63 | 1014.3 |
| 20260504212804 | 61 | 207 | 4.0 | 8.0 | 0.00 | 0.00 | 0.00 | 63 | 1014.2 |
| 20260504212604 | 61 | 211 | 3.0 | 8.0 | 0.00 | 0.00 | 0.00 | 63 | 1014.3 |
| 20260504212509 | 62 | 215 | 3.0 | 7.0 | 0.00 | 0.00 | 0.00 | 63 | 1014.4 |
| 20260504212404 | 62 | 220 | 2.0 | 6.0 | 0.00 | 0.00 | 0.00 | 63 | 1014.4 |
| 20260504212304 | 62 | 228 | 2.0 | 5.0 | 0.00 | 0.00 | 0.00 | 63 | 1014.4 |
| 20260504212104 | 62 | 239 | 1.0 | 4.0 | 0.00 | 0.00 | 0.00 | 63 | 1014.4 |
| 20260504211904 | 62 | 240 | 1.0 | 4.0 | 0.00 | 0.00 | 0.00 | 62 | 1014.4 |
| 20260504211704 | 62 | 247 | 1.0 | 3.0 | 0.00 | 0.00 | 0.00 | 62 | 1014.3 |
| 20260504211604 | 62 | 251 | 1.0 | 3.0 | 0.00 | 0.00 | 0.00 | 62 | 1014.4 |
| 20260504211504 | 62 | 253 | 1.0 | 3.0 | 0.00 | 0.00 | 0.00 | 62 | 1014.3 |
| 20260504211403 | 62 | 254 | 1.0 | 3.0 | 0.00 | 0.00 | 0.00 | 62 | 1014.4 |
| 20260504211204 | 62 | 257 | 1.0 | 3.0 | 0.00 | 0.00 | 0.00 | 61 | 1014.4 |
| 20260504211108 | 62 | 261 | 1.0 | 3.0 | 0.00 | 0.00 | 0.00 | 62 | 1014.3 |
| 20260504211004 | 62 | 267 | 1.0 | 3.0 | 0.00 | 0.00 | 0.00 | 62 | 1014.3 |
| 20260504210904 | 62 | 273 | 0.0 | 3.0 | 0.00 | 0.00 | 0.00 | 62 | 1014.3 |
| 20260504210804 | 62 | 283 | 0.0 | 2.0 | 0.00 | 0.00 | 0.00 | 62 | 1014.3 |
| 20260504210604 | 62 | 283 | 0.0 | 1.0 | 0.00 | 0.00 | 0.00 | 62 | 1014.3 |
| 20260504210503 | 62 | 284 | 0.0 | 3.0 | 0.00 | 0.00 | 0.00 | 62 | 1014.2 |
| 20260504210409 | 62 | 286 | 0.0 | 3.0 | 0.00 | 0.00 | 0.00 | 62 | 1014.3 |
| 20260504210304 | 63 | 283 | 0.0 | 3.0 | 0.00 | 0.00 | 0.00 | 62 | 1014.2 |
| 20260504210203 | 63 | 275 | 1.0 | 3.0 | 0.00 | 0.00 | 0.00 | 62 | 1014.3 |
| 20260504210004 | 62 | 278 | 1.0 | 3.0 | 0.00 | 0.00 | 0.00 | 61 | 1014.3 |
| 20260504205708 | 62 | 284 | 1.0 | 4.0 | 0.00 | 0.00 | 0.00 | 62 | 1014.4 |
| 20260504205504 | 62 | 288 | 1.0 | 4.0 | 0.00 | 0.00 | 0.00 | 62 | 1014.3 |
| 20260504205404 | 63 | 291 | 2.0 | 4.0 | 0.00 | 0.00 | 0.00 | 62 | 1014.4 |
| 20260504205304 | 63 | 295 | 2.0 | 4.0 | 0.00 | 0.00 | 0.00 | 62 | 1014.4 |
| 20260504205203 | 63 | 301 | 2.0 | 4.0 | 0.00 | 0.00 | 0.00 | 62 | 1014.4 |
| 20260504205103 | 63 | 303 | 2.0 | 4.0 | 0.00 | 0.00 | 0.00 | 62 | 1014.3 |
| 20260504204803 | 63 | 308 | 1.0 | 3.0 | 0.00 | 0.00 | 0.00 | 61 | 1014.4 |
| 20260504204704 | 63 | 312 | 1.0 | 3.0 | 0.00 | 0.00 | 0.00 | 61 | 1014.4 |
| 20260504204604 | 63 | 313 | 1.0 | 3.0 | 0.00 | 0.00 | 0.00 | 61 | 1014.4 |
| 20260504204504 | 63 | 314 | 1.0 | 3.0 | 0.00 | 0.00 | 0.00 | 61 | 1014.3 |
| 20260504204308 | 63 | 312 | 1.0 | 3.0 | 0.00 | 0.00 | 0.00 | 61 | 1014.3 |
| 20260504204203 | 63 | 313 | 1.0 | 3.0 | 0.00 | 0.00 | 0.00 | 61 | 1014.3 |
| 20260504204103 | 63 | 313 | 1.0 | 3.0 | 0.00 | 0.00 | 0.00 | 61 | 1014.4 |
| 20260504203904 | 63 | 311 | 1.0 | 3.0 | 0.00 | 0.00 | 0.00 | 61 | 1014.4 |
| 20260504203803 | 63 | 312 | 1.0 | 3.0 | 0.00 | 0.00 | 0.00 | 61 | 1014.4 |
| 20260504203705 | 63 | 313 | 1.0 | 3.0 | 0.00 | 0.00 | 0.00 | 60 | 1014.3 |
| 20260504203504 | 63 | 317 | 1.0 | 3.0 | 0.00 | 0.00 | 0.00 | 61 | 1014.4 |
| 20260504203303 | 63 | 324 | 1.0 | 3.0 | 0.00 | 0.00 | 0.00 | 61 | 1014.3 |
| 20260504203203 | 63 | 329 | 1.0 | 3.0 | 0.00 | 0.00 | 0.00 | 61 | 1014.3 |
| 20260504203103 | 63 | 334 | 1.0 | 3.0 | 0.00 | 0.00 | 0.00 | 61 | 1014.3 |
| 20260504203004 | 63 | 340 | 1.0 | 3.0 | 0.00 | 0.00 | 0.00 | 60 | 1014.3 |
| 20260504202908 | 63 | 345 | 1.0 | 3.0 | 0.00 | 0.00 | 0.00 | 61 | 1014.3 |
| 20260504202803 | 63 | 344 | 1.0 | 3.0 | 0.00 | 0.00 | 0.00 | 61 | 1014.4 |
| 20260504202703 | 63 | 343 | 2.0 | 3.0 | 0.00 | 0.00 | 0.00 | 61 | 1014.4 |
| 20260504202503 | 63 | 342 | 2.0 | 4.0 | 0.00 | 0.00 | 0.00 | 61 | 1014.4 |
| 20260504202403 | 63 | 340 | 2.0 | 4.0 | 0.00 | 0.00 | 0.00 | 61 | 1014.4 |
| 20260504202305 | 63 | 337 | 2.0 | 4.0 | 0.00 | 0.00 | 0.00 | 61 | 1014.4 |
| 20260504202208 | 63 | 333 | 2.0 | 4.0 | 0.00 | 0.00 | 0.00 | 61 | 1014.3 |
| 20260504202004 | 62 | 331 | 2.0 | 4.0 | 0.00 | 0.00 | 0.00 | 61 | 1014.3 |
| 20260504201804 | 63 | 329 | 2.0 | 4.0 | 0.00 | 0.00 | 0.00 | 61 | 1014.4 |
| 20260504201704 | 63 | 329 | 2.0 | 4.0 | 0.00 | 0.00 | 0.00 | 61 | 1014.4 |
| 20260504201603 | 63 | 326 | 2.0 | 4.0 | 0.00 | 0.00 | 0.00 | 61 | 1014.4 |
| 20260504201508 | 63 | 326 | 2.0 | 3.0 | 0.00 | 0.00 | 0.00 | 60 | 1014.3 |
| 20260504201404 | 63 | 327 | 2.0 | 3.0 | 0.00 | 0.00 | 0.00 | 61 | 1014.4 |
| 20260504201303 | 63 | 331 | 2.0 | 3.0 | 0.00 | 0.00 | 0.00 | 60 | 1014.4 |
| 20260504201203 | 63 | 334 | 2.0 | 3.0 | 0.00 | 0.00 | 0.00 | 60 | 1014.4 |
| 20260504201105 | 63 | 334 | 2.0 | 3.0 | 0.00 | 0.00 | 0.00 | 61 | 1014.3 |
| 20260504201004 | 63 | 334 | 2.0 | 3.0 | 0.00 | 0.00 | 0.00 | 61 | 1014.3 |
| 20260504200904 | 63 | 332 | 2.0 | 3.0 | 0.00 | 0.00 | 0.00 | 61 | 1014.3 |
| 20260504200808 | 63 | 332 | 2.0 | 4.0 | 0.00 | 0.00 | 0.00 | 61 | 1014.4 |
| 20260504200704 | 63 | 333 | 2.0 | 4.0 | 0.00 | 0.00 | 0.00 | 60 | 1014.3 |
| 20260504200604 | 63 | 334 | 2.0 | 4.0 | 0.00 | 0.00 | 0.00 | 60 | 1014.4 |
| 20260504200504 | 63 | 332 | 2.0 | 4.0 | 0.00 | 0.00 | 0.00 | 60 | 1014.3 |
| 20260504200405 | 63 | 331 | 2.0 | 4.0 | 0.00 | 0.00 | 0.00 | 60 | 1014.3 |
| 20260504200304 | 63 | 331 | 2.0 | 4.0 | 0.00 | 0.00 | 0.00 | 60 | 1014.3 |
| 20260504200203 | 63 | 332 | 2.0 | 4.0 | 0.00 | 0.00 | 0.00 | 60 | 1014.4 |
| 20260504200107 | 63 | 332 | 2.0 | 4.0 | 0.00 | 0.00 | 0.00 | 60 | 1014.4 |
| 20260504200005 | 63 | 332 | 2.0 | 4.0 | 0.00 | 0.00 | 0.00 | 60 | 1014.4 |
| 20260504195903 | 63 | 336 | 1.0 | 4.0 | 0.00 | 0.00 | 0.00 | 60 | 1014.4 |
| 20260504195803 | 63 | 339 | 1.0 | 3.0 | 0.00 | 0.00 | 0.00 | 60 | 1014.3 |
| 20260504195703 | 63 | 339 | 1.0 | 3.0 | 0.00 | 0.00 | 0.00 | 60 | 1014.2 |
| 20260504195504 | 63 | 346 | 1.0 | 3.0 | 0.00 | 0.00 | 0.00 | 60 | 1014.3 |
| 20260504195408 | 63 | 350 | 1.0 | 3.0 | 0.00 | 0.00 | 0.00 | 60 | 1014.3 |
| 20260504195304 | 63 | 344 | 1.0 | 3.0 | 0.00 | 0.00 | 0.00 | 61 | 1014.3 |
| 20260504195204 | 63 | 340 | 1.0 | 3.0 | 0.00 | 0.00 | 0.00 | 61 | 1014.3 |
| 20260504195104 | 63 | 337 | 1.0 | 3.0 | 0.00 | 0.00 | 0.00 | 61 | 1014.3 |
| 20260504194903 | 63 | 329 | 2.0 | 4.0 | 0.00 | 0.00 | 0.00 | 60 | 1014.3 |
| 20260504194804 | 63 | 328 | 2.0 | 4.0 | 0.00 | 0.00 | 0.00 | 61 | 1014.2 |
| 20260504194708 | 63 | 327 | 2.0 | 4.0 | 0.00 | 0.00 | 0.00 | 60 | 1014.3 |
| 20260504194504 | 63 | 329 | 2.0 | 4.0 | 0.00 | 0.00 | 0.00 | 60 | 1014.1 |